[{"header": {"dx": 0.06612293990616946, "dy": 0.0552356325346848, "nx": 98, "ny": 59, "la1": 35.046912555036876, "la2": 31.78801023549047, "lo1": -121.43107172385933, "lo2": -114.95102361305473, "refTime": "2026041118", "parameterCategory": 1, "parameterNumber": 2}, "data": [3.48, 3.48, 3.12, 2.84, 2.82, 2.16, 2.32, 1.76, 1.63, 1.18, 1.61, 2.29, 3.6, 4.42, 3.55, 3.33, 2.82, 2.82, 2.82, 3.6, 4.0, 5.46, 5.76, 6.64, 6.64, 7.06, 7.06, 7.15, 7.15, 6.82, 5.58, 5.6, 5.6, 4.34, 1.27, 0.0, 0.0, 0.98, 2.0, 2.76, 2.95, 3.82, 4.46, 5.06, 6.32, 6.32, 6.53, 7.13, 6.57, 6.84, 7.24, 8.01, 8.42, 8.85, 8.85, 9.26, 9.62, 10.01, 10.04, 10.04, 10.28, 10.43, 9.43, 8.42, 7.81, 7.81, 7.81, 7.76, 8.38, 9.04, 9.4, 9.4, 10.04, 10.04, 10.04, 9.43, 7.81, 4.43, 2.48, 1.6, 2.53, 3.58, 3.58, 2.8, 2.8, 3.58, 4.47, 2.95, 0.89, 0.89, 0.89, 1.69, 2.6, 3.53, 4.3, 5.0, 6.0, 6.0, 3.48, 3.48, 3.49, 2.84, 2.82, 2.32, 2.32, 1.76, 1.63, 1.18, 1.09, 2.57, 3.6, 4.03, 4.14, 2.82, 2.64, 2.82, 2.4, 2.51, 4.0, 3.7, 5.1, 6.87, 6.18, 6.64, 7.06, 7.15, 6.45, 6.11, 5.37, 5.24, 5.53, 6.18, 5.26, 1.05, 0.0, 0.0, 1.05, 1.84, 2.48, 3.16, 3.68, 4.12, 6.04, 7.13, 6.7, 6.98, 6.84, 7.36, 7.64, 8.42, 8.85, 8.9, 8.9, 10.01, 10.01, 10.04, 10.04, 10.28, 10.63, 10.04, 8.42, 7.44, 6.79, 7.15, 7.76, 8.38, 9.4, 9.66, 10.01, 10.04, 10.04, 10.04, 9.04, 8.42, 6.11, 4.43, 2.48, 1.6, 2.53, 3.58, 3.58, 2.8, 2.8, 3.58, 4.47, 2.95, 0.89, 0.89, 0.89, 1.69, 2.6, 3.53, 4.3, 5.0, 6.0, 6.0, 4.0, 3.48, 3.49, 2.84, 2.82, 2.32, 2.32, 1.76, 1.76, 1.1, 1.18, 1.73, 3.8, 4.26, 4.16, 2.64, 2.64, 2.64, 1.96, 2.69, 2.67, 3.8, 4.2, 6.24, 7.56, 6.95, 6.32, 6.01, 5.37, 4.68, 4.34, 4.4, 5.29, 6.58, 6.16, 5.51, 0.0, 0.0, 0.0, 1.83, 2.6, 2.4, 3.21, 4.92, 6.42, 7.13, 6.7, 6.57, 6.84, 7.64, 8.12, 8.53, 8.93, 9.34, 8.93, 10.04, 10.04, 10.04, 10.28, 10.63, 10.63, 9.43, 7.81, 6.44, 6.79, 7.35, 8.31, 9.26, 9.96, 10.66, 10.66, 10.43, 9.65, 9.43, 8.42, 6.32, 4.74, 3.22, -0.0, 1.6, 2.53, 3.2, 2.68, 1.9, 1.2, 2.6, 3.58, 2.16, 0.94, 0.89, 1.69, 2.49, 3.39, 4.3, 5.0, 6.0, 6.57, 6.15, 4.0, 3.79, 3.49, 3.22, 2.82, 2.32, 2.32, 1.65, 1.76, 1.1, 1.18, 1.73, 3.6, 4.03, 3.55, 2.64, 1.84, 1.84, 1.73, 2.67, 2.67, 2.82, 4.14, 4.5, 5.9, 6.76, 5.21, 4.68, 3.55, 2.83, 3.32, 3.36, 4.25, 5.32, 5.86, 6.8, 5.81, 3.48, 2.23, 2.97, 2.4, 2.49, 4.13, 5.9, 6.83, 6.7, 6.7, 6.57, 7.36, 7.64, 8.22, 9.34, 9.0, 9.0, 9.4, 9.67, 10.04, 10.28, 10.63, 10.63, 10.04, 8.06, 6.79, 6.11, 6.64, 7.48, 8.85, 9.17, 10.52, 11.18, 11.28, 10.04, 9.05, 7.32, 6.08, 4.74, 3.22, -0.0, -0.0, -0.0, 1.2, 2.21, 2.24, 2.24, 2.68, 3.2, 1.99, 0.89, 0.89, 1.76, 3.39, 3.53, 4.3, 4.3, 5.63, 6.57, 6.7, 5.29, 4.37, 4.07, 3.49, 3.22, 2.82, 2.36, 2.32, 1.8, 1.65, 1.2, 1.1, 1.73, 3.4, 4.22, 3.72, 2.64, 1.52, 1.84, 1.63, 1.84, 2.69, 2.54, 2.69, 4.2, 3.45, 5.1, 5.32, 4.05, 2.97, 2.54, 2.69, 2.69, 3.45, 5.1, 6.95, 6.95, 7.33, 8.4, 6.21, 3.6, 2.41, 2.6, 4.44, 5.76, 6.7, 6.7, 6.7, 6.98, 7.48, 8.22, 8.64, 8.31, 9.04, 9.4, 9.67, 10.04, 10.43, 10.43, 10.63, 10.04, 9.42, 6.79, 6.11, 6.18, 6.84, 8.3, 8.66, 9.7, 10.75, 11.47, 11.54, 10.58, 8.94, 6.73, 4.11, 1.98, 1.6, -0.0, -0.0, -0.0, 2.24, 2.68, -0.0, -0.0, -0.0, 0.95, 0.85, 0.89, 1.76, 2.51, 4.33, 4.33, 4.17, 5.0, 6.0, 6.7, 6.31, 5.46, 4.37, 4.07, 3.49, 3.22, 3.08, 2.82, 2.16, 2.32, 1.8, 1.12, 1.1, 1.63, 3.4, 3.97, 3.0, 2.64, 1.84, 1.84, 0.83, 0.89, 0.89, 0.84, 1.2, 1.26, 1.33, 2.58, 2.7, 4.05, 4.05, 4.05, 3.6, 2.82, 3.55, 4.58, 5.69, 6.32, 7.35, 8.42, 6.73, 2.57, 0.82, 2.52, 4.8, 6.0, 6.0, 6.84, 7.36, 7.48, 7.59, 8.02, 8.38, 8.73, 9.04, 9.4, 9.67, 10.04, 10.04, 10.04, 10.63, 10.0, 7.82, 5.37, 5.1, 5.63, 6.65, 8.31, 9.24, 8.95, 10.01, 11.38, 11.7, 11.47, 9.89, 6.18, 3.22, -0.0, -0.0, -0.0, -0.0, 2.24, 2.24, -0.0, -0.0, -0.0, -0.0, -0.0, -0.0, 1.69, 2.51, 3.42, 4.21, 4.93, 5.06, 6.0, 6.7, 6.83, 6.04, 4.56, 4.55, 4.07, 3.79, 3.49, 2.84, 2.82, 2.36, 2.16, 1.67, 1.23, 1.2, 1.76, 2.67, 3.72, 2.66, 1.84, 1.73, 1.01, 0.89, 0.83, 0.78, -0.0, -0.0, -0.0, 1.2, 1.32, 1.32, 2.33, 3.87, 4.5, 4.0, 2.82, 2.8, 3.47, 4.95, 5.59, 6.95, 8.82, 6.58, 1.84, -0.0, 1.33, 3.45, 4.6, 6.16, 6.84, 8.42, 7.78, 7.59, 7.59, 8.49, 8.38, 9.04, 9.43, 9.65, 9.65, 10.0, 10.0, 10.0, 9.36, 6.18, 3.55, 4.25, 5.11, 6.4, 8.99, 9.6, 8.95, 8.95, 10.43, 11.88, 11.87, 10.24, 6.95, 2.99, -0.0, -0.0, -2.68, 2.24, -2.24, -0.0, -0.0, -0.0, -0.89, -0.94, -0.0, 0.89, 1.76, 2.6, 3.29, 3.76, 4.4, 5.86, 5.76, 6.31, 6.04, 5.21, 4.2, 4.55, 4.07, 4.07, 3.49, 2.84, 2.82, 2.36, 2.36, 1.67, 1.14, 1.12, 1.12, 1.96, 1.96, 2.82, 1.63, 1.63, 0.89, 0.79, 1.73, 0.96, -0.0, -0.0, -0.0, 0.89, 1.32, -0.0, 1.4, 4.14, 4.14, 2.82, 1.25, 1.4, 2.66, 3.79, 4.83, 5.69, 6.73, 6.58, 3.87, 1.26, 2.69, 3.8, 3.52, 4.66, 6.24, 7.48, 7.64, 7.36, 7.95, 7.27, 8.38, 9.04, 9.43, 9.43, 9.42, 9.9, 9.36, 9.24, 7.35, 4.29, 2.57, 3.32, 4.98, 6.4, 8.99, 9.89, 9.8, 9.56, 10.63, 12.27, 11.88, 9.4, 5.69, 2.4, 1.13, -0.0, 1.79, 2.24, -2.68, -2.21, -0.88, -0.88, -0.82, -0.0, -0.0, 0.76, 1.75, 2.59, 3.25, 3.11, 3.78, 5.14, 6.15, 6.31, 5.46, 5.21, 4.4, 4.55, 4.37, 4.07, 3.49, 2.84, 2.84, 2.18, 2.36, 1.84, 1.7, 1.05, 0.53, -0.0, 1.96, 1.96, 1.96, 1.01, -0.0, 0.89, 1.01, 1.49, -0.0, -0.0, -0.0, 0.88, 1.41, -0.0, 1.52, 4.02, 4.02, 1.23, -0.0, -0.0, 2.66, 4.16, 5.49, 6.08, 4.56, 5.31, 4.2, 3.87, 3.52, 3.8, 4.71, 4.96, 5.1, 5.72, 6.16, 7.38, 8.3, 9.17, 8.31, 8.73, 9.04, 9.05, 9.03, 8.8, 8.72, 7.76, 5.49, 2.69, 2.51, 3.23, 4.71, 6.73, 8.99, 10.65, 10.51, 10.66, 11.02, 11.92, 9.84, 6.55, 2.0, 1.4, 1.4, 2.21, 2.24, -0.0, -0.0, -0.0, -2.21, -1.13, -0.0, -0.0, 0.81, 1.72, 2.67, 2.99, 2.9, 3.06, 3.06, 3.88, 4.92, 6.15, 5.29, 5.06, 5.29, 4.8, 4.0, 3.73, 3.2, 3.12, 2.84, 2.4, 2.18, 2.18, 1.7, 1.07, 0.54, 0.55, 0.61, 1.84, 0.95, -0.0, -0.0, -0.0, -0.0, -0.0, -0.0, -0.0, -0.0, -0.0, 1.41, -0.0, -0.0, 1.84, 2.8, 1.52, -0.0, -0.0, 1.52, 4.29, 5.72, 4.43, 2.6, 3.8, 5.46, 4.34, 4.96, 5.1, 5.24, 4.95, 4.26, 4.12, 5.64, 7.36, 8.01, 8.42, 8.42, 8.12, 7.48, 7.59, 7.68, 7.41, 7.2, 5.49, 3.6, 2.51, 2.39, 3.32, 4.87, 7.01, 8.99, 11.38, 11.15, 10.19, 10.0, 8.8, 5.82, 1.8, -0.0, 1.34, 1.34, 2.24, -0.0, -0.0, -0.0, 1.8, 2.84, 1.79, -0.0, 1.58, 1.98, 3.35, 3.9, 3.2, 1.55, 1.58, 2.31, 2.7, 4.4, 5.76, 5.76, 6.15, 6.15, 4.4, 4.27, 3.78, 3.48, 2.86, 2.84, 2.84, 2.4, 2.4, 1.73, 1.73, 1.19, 0.55, 0.55, 0.96, 0.89, -0.0, -0.0, -0.0, 0.57, 0.88, 1.14, 0.96, 1.14, 1.52, -0.0, -0.0, -0.0, 1.84, 3.22, 2.6, 1.05, 1.05, 3.22, 3.79, 5.06, 3.91, 2.54, 4.26, 5.36, 5.89, 5.89, 5.53, 5.31, 3.91, 3.4, 3.91, 4.96, 5.76, 6.42, 6.7, 7.49, 7.49, 6.65, 5.93, 5.93, 6.7, 6.18, 3.55, 1.76, 1.66, 3.2, 4.04, 4.91, 6.47, 8.99, 10.32, 10.43, 9.7, 7.59, 4.74, 1.2, -1.26, -1.79, -1.58, 0.0, -1.58, -2.68, -0.0, 1.84, 4.03, 6.01, 6.7, 3.47, 3.9, 4.57, 5.21, 4.74, 3.11, 0.78, 0.83, 1.75, 2.57, 4.2, 5.29, 6.15, 6.15, 6.7, 4.6, 3.88, 3.43, 3.15, 2.86, 2.86, 2.84, 2.84, 2.4, 2.2, 1.73, 1.57, 1.23, 1.23, 0.57, 0.57, 0.57, 0.57, -0.0, 0.59, 1.13, 1.33, 1.84, 2.8, 1.52, 1.41, -0.0, 0.61, 2.2, 3.22, 3.47, 2.99, 3.22, 2.95, 3.79, 3.91, 4.65, 4.68, 5.24, 6.01, 6.01, 6.01, 5.69, 4.75, 2.66, 2.26, 2.46, 3.7, 4.2, 3.87, 4.01, 4.98, 5.02, 4.16, 4.04, 4.76, 6.47, 6.94, 3.45, -0.0, 0.84, 3.3, 4.04, 4.04, 4.95, 6.64, 8.14, 9.13, 8.96, 7.59, 3.09, -1.79, -1.9, -1.4, -1.27, -1.08, -1.08, 2.24, 1.55, 3.8, 6.0, 8.42, 9.17, 7.15, 7.03, 6.64, 6.07, 4.74, 2.6, 0.88, -0.0, 0.83, 1.49, 3.63, 5.06, 5.9, 5.9, 6.15, 4.11, 3.72, 3.43, 2.86, 2.86, 2.86, 2.86, 3.12, 2.86, 2.44, 2.44, 1.76, 1.76, 1.76, 1.11, 1.11, 1.11, 0.66, 0.59, 1.33, 1.16, 1.61, 1.84, 2.23, 2.51, 2.23, 1.61, 1.88, 1.9, 2.5, 3.93, 4.11, 4.11, 3.79, 3.48, 3.79, 4.11, 4.74, 5.49, 6.18, 6.11, 6.11, 5.06, 3.47, 1.32, 1.14, 1.2, 2.33, 2.33, 2.46, 2.35, 2.28, 1.45, 1.48, 1.13, 2.32, 6.1, 10.05, 5.29, -0.0, -0.0, 3.25, 4.0, 3.25, 2.5, 4.01, 5.21, 6.46, 8.26, 10.72, 8.99, 3.48, -1.19, -1.05, -0.96, -0.89, 0.0, 3.22, 5.28, 6.62, 7.63, 9.06, 9.53, 9.96, 9.34, 8.38, 6.45, 3.63, 2.53, 1.83, 0.81, 0.78, 0.76, 2.69, 4.56, 6.04, 5.9, 5.9, 3.7, 3.35, 3.16, 2.86, 3.15, 2.86, 2.86, 2.86, 2.86, 2.86, 2.44, 2.22, 2.22, 1.76, 1.76, 1.76, 1.11, 1.27, 1.13, 1.13, 1.33, 1.84, 2.23, 2.53, 2.53, 2.79, 2.79, 2.5, 2.4, 1.86, 2.15, 3.93, 4.43, 3.79, 3.79, 3.79, 4.19, 4.43, 4.43, 5.15, 5.49, 5.15, 5.06, 2.66, 1.18, -0.0, 0.83, 2.4, 2.4, 2.54, 2.54, 1.25, -0.0, -0.0, -0.0, 0.83, 4.0, 9.48, 8.51, 0.82, -0.0, 2.45, 2.54, 1.21, 0.81, 1.61, 3.07, 3.71, 7.63, 10.32, 13.59, 10.63, 3.72, -0.89, 0.0, 2.53, 5.37, 7.51, 8.84, 9.6, 9.48, 10.01, 9.56, 8.88, 8.93, 8.38, 5.53, 2.8, 2.4, 3.22, 2.6, 0.83, 0.76, 2.54, 3.91, 5.21, 5.06, 5.29, 3.7, 3.35, 3.16, 2.86, 3.15, 3.48, 3.2, 2.86, 2.86, 2.86, 2.86, 2.22, 2.22, 2.22, 2.22, 1.76, 1.8, 1.8, 1.6, 1.6, 1.84, 1.84, 2.53, 2.53, 2.79, 3.07, 3.07, 2.91, 2.4, 2.12, 1.49, 1.9, 4.84, 5.6, 4.43, 4.74, 4.29, 4.43, 5.72, 5.21, 5.21, 5.36, 4.02, 2.66, 2.82, 1.4, 1.32, 1.32, 1.32, 1.32, 2.66, 1.32, -0.0, -0.0, 1.41, 1.41, 4.11, 7.06, 6.71, 2.28, -0.0, 1.22, 1.22, -0.0, -0.0, 1.22, 1.22, 2.49, 6.76, 9.8, 12.16, 14.5, 10.85, 5.51, 4.47, 5.9, 8.99, 10.43, 11.38, 11.2, 10.63, 10.04, 8.8, 7.6, 6.07, 7.06, 5.36, 4.26, 4.03, 5.24, 4.68, 2.26, 1.65, 2.4, 3.6, 4.4, 5.14, 5.14, 4.11, 3.43, 3.43, 2.86, 3.48, 3.48, 3.48, 3.48, 3.2, 2.86, 2.86, 3.15, 2.86, 2.22, 2.22, 2.48, 2.23, 1.8, 1.8, 1.84, 1.84, 2.21, 2.21, 2.5, 2.68, 2.91, 3.07, 2.63, 2.24, 1.79, 1.6, 1.9, 2.79, 5.6, 4.74, 4.01, 4.74, 4.74, 5.36, 5.01, 4.19, 3.91, 4.29, 2.82, 2.66, 2.66, 2.49, 2.32, 1.23, 1.52, 2.32, 2.32, 2.8, 2.98, 3.16, 4.09, 3.79, 4.75, 4.4, 4.6, 3.45, 2.54, 1.18, -0.0, -0.0, -0.0, -0.0, 2.82, 6.87, 10.01, 10.66, 13.85, 14.39, 10.66, 8.05, 8.86, 11.65, 12.72, 12.16, 12.26, 11.28, 9.81, 7.82, 6.6, 5.06, 4.42, 4.96, 5.06, 5.9, 5.9, 6.04, 2.9, 3.09, 3.27, 3.15, 3.88, 4.6, 4.6, 3.88, 3.43, 3.43, 3.48, 3.48, 3.48, 3.48, 3.48, 3.48, 3.48, 3.48, 3.15, 2.86, 2.86, 2.86, 2.86, 2.51, 2.23, 2.23, 2.23, 2.21, 2.15, 2.4, 2.91, 3.07, 3.13, 2.63, 2.6, 2.12, 1.34, 1.26, 1.61, 2.53, 4.43, 4.11, 4.29, 4.74, 5.72, 4.43, 4.43, 3.76, 2.8, 3.91, 2.8, 2.66, 2.66, 2.82, 2.66, 2.8, 3.22, 2.98, 4.11, 4.43, 3.76, 3.76, 3.76, 4.02, 4.29, 5.03, 6.32, 5.31, 5.06, 3.76, 3.48, -0.0, -0.0, -0.0, 1.3, 5.59, 8.82, 12.39, 13.33, 13.83, 11.06, 9.8, 10.47, 12.87, 14.42, 13.46, 12.57, 10.92, 9.34, 7.76, 6.01, 5.89, 6.18, 4.74, 6.15, 6.7, 6.7, 5.13, 3.79, 3.2, 3.15, 3.49, 3.88, 5.18, 5.18, 4.27, 3.43, 3.78, 3.48, 3.48, 3.48, 3.48, 3.48, 3.48, 3.48, 3.48, 3.48, 2.86, 2.86, 2.86, 3.16, 2.23, 2.48, 2.86, 2.79, 2.63, 2.12, 2.0, 2.91, 3.13, 2.6, 1.86, 1.86, 1.7, 1.6, 1.61, 2.23, 2.84, 3.43, 4.0, 4.89, 4.43, 4.74, 4.02, 4.02, 4.02, 4.29, 4.29, 2.66, 2.66, 3.91, 3.91, 4.29, 4.02, 4.11, 4.11, 4.46, 4.11, 4.43, 4.02, 4.02, 4.02, 5.36, 5.72, 6.52, 6.28, 6.28, 5.72, 4.46, 2.21, 0.89, -0.0, -0.0, 3.76, 8.4, 13.27, 13.91, 14.39, 12.22, 10.65, 12.16, 14.2, 14.47, 13.8, 12.09, 11.06, 9.7, 8.85, 7.52, 7.78, 7.48, 6.98, 5.9, 6.7, 6.98, 6.83, 5.53, 3.09, 3.06, 4.25, 4.92, 5.52, 5.52, 4.27, 4.0, 4.0, 4.0, 4.0, 4.0, 4.0, 4.0, 3.48, 3.48, 3.48, 3.48, 3.16, 2.86, 2.86, 4.11, 2.86, 2.86, 3.16, 3.6, 2.63, 1.6, 1.24, 3.93, 4.4, 4.92, 1.79, 3.39, 3.72, 2.23, 3.16, 3.43, 4.0, 4.27, 4.27, 3.88, 3.72, 3.43, 4.89, 5.72, 4.43, 4.19, 4.29, 4.29, 4.56, 5.37, 5.37, 5.06, 5.36, 4.43, 4.43, 4.43, 4.11, 2.8, 3.0, 4.02, 4.29, 5.37, 6.28, 6.9, 6.9, 6.9, 6.13, 4.57, 3.2, 2.21, 0.87, 0.98, 4.0, 7.06, 11.78, 13.91, 15.66, 14.39, 13.19, 12.98, 13.39, 13.19, 12.27, 11.2, 10.75, 10.84, 9.89, 8.16, 8.85, 8.12, 7.78, 6.88, 6.31, 6.14, 7.13, 6.04, 4.2, 3.78, 5.0, 5.63, 6.57, 6.57, 4.4, 4.0, 4.0, 4.0, 4.0, 4.0, 4.0, 4.0, 4.0, 4.0, 3.78, 3.78, 3.43, 3.43, 3.43, 3.16, 2.86, 2.86, 4.89, 4.98, 4.0, 1.2, 1.33, 3.22, 4.11, 4.11, 3.79, 2.86, 3.48, 4.07, 4.37, 4.0, 4.4, 4.8, 4.4, 4.6, 4.52, 3.88, 4.27, 4.0, 4.55, 4.55, 4.55, 4.55, 4.07, 6.52, 6.08, 5.72, 5.72, 5.36, 4.43, 4.02, 4.02, 4.02, 3.22, 3.72, 5.37, 5.43, 6.18, 8.0, 7.63, 7.06, 6.23, 5.2, 3.58, 2.53, 2.76, 3.35, 4.6, 6.28, 9.97, 13.92, 16.22, 15.45, 14.28, 13.41, 12.07, 11.14, 9.4, 9.96, 11.6, 11.87, 11.25, 9.96, 9.26, 8.93, 7.94, 7.31, 5.94, 6.01, 6.04, 6.15, 5.14, 5.0, 5.77, 7.51, 7.64, 7.64, 4.4, 4.27, 4.0, 4.0, 4.0, 4.0, 4.0, 4.0, 4.0, 4.0, 4.0, 3.43, 3.43, 3.43, 3.43, 3.43, 2.84, 2.84, 2.84, 4.54, 4.11, 2.48, 2.23, 2.84, 2.84, 3.43, 4.0, 4.37, 4.55, 4.55, 4.8, 4.4, 4.8, 4.8, 5.09, 5.09, 4.8, 4.4, 4.0, 4.55, 4.55, 4.93, 5.08, 5.08, 4.65, 6.28, 6.52, 6.52, 5.72, 5.01, 4.43, 4.02, 4.29, 3.68, 3.68, 4.29, 5.37, 5.77, 7.6, 7.6, 7.63, 6.64, 6.14, 5.2, 3.35, 3.47, 3.47, 3.33, 4.65, 5.77, 9.03, 12.98, 15.31, 13.41, 10.68, 9.24, 6.65, 7.08, 7.2, 9.04, 10.98, 12.57, 12.87, 10.82, 9.62, 8.64, 7.59, 7.64, 6.95, 5.69, 5.21, 6.0, 6.08, 5.86, 6.62, 7.44, 8.22, 8.22, 4.4, 4.27, 4.4, 4.4, 4.4, 4.4, 4.4, 4.27, 4.0, 4.0, 4.0, 3.64, 3.43, 3.43, 3.72, 3.72, 3.35, 3.14, 3.14, 3.35, 3.43, 3.43, 3.43, 3.35, 3.35, 3.72, 3.88, 4.27, 4.6, 4.6, 4.6, 4.6, 5.02, 5.09, 5.31, 5.31, 5.31, 4.9, 4.55, 4.65, 4.65, 5.21, 5.21, 5.21, 4.94, 4.94, 6.9, 7.06, 5.36, 5.36, 4.29, 4.56, 4.75, 3.91, 3.91, 4.75, 5.24, 6.01, 6.63, 6.9, 6.57, 6.57, 5.6, 4.43, 4.58, 4.42, 3.4, 3.4, 3.91, 4.88, 7.27, 12.22, 13.51, 8.72, 0.0, 2.4, 3.58, 4.57, 5.82, 7.69, 10.66, 12.52, 12.87, 12.22, 10.58, 8.12, 7.48, 8.22, 7.9, 6.32, 5.38, 5.41, 6.62, 6.97, 7.52, 7.9, 8.53, 8.53, 4.4, 4.4, 4.4, 4.4, 4.8, 4.8, 4.4, 4.4, 4.27, 4.27, 4.27, 3.88, 3.88, 3.72, 3.72, 3.72, 3.72, 3.35, 3.35, 3.35, 3.35, 3.35, 3.35, 3.35, 3.6, 4.0, 4.11, 4.11, 4.6, 4.6, 4.6, 4.6, 5.02, 5.09, 5.31, 5.31, 5.31, 5.08, 5.08, 4.65, 4.65, 5.21, 4.94, 5.29, 5.29, 5.29, 6.9, 6.13, 5.72, 5.06, 4.75, 5.03, 5.03, 4.75, 3.91, 4.75, 5.24, 5.89, 6.64, 5.58, 5.58, 5.49, 5.37, 4.42, 4.26, 4.12, 3.27, 3.4, 2.67, 3.27, 4.88, 7.24, 12.62, 5.51, 3.58, 2.21, 4.6, 5.82, 6.94, 8.14, 10.27, 12.15, 12.27, 11.6, 10.12, 8.59, 8.3, 8.72, 9.06, 8.76, 5.78, 5.7, 6.71, 7.52, 7.59, 8.27, 8.27, 8.27, 4.6, 4.6, 4.4, 4.4, 4.8, 4.8, 4.8, 4.4, 4.4, 4.4, 4.27, 4.27, 3.88, 3.88, 3.88, 3.88, 3.72, 3.35, 3.35, 3.35, 3.35, 3.35, 3.35, 3.6, 3.6, 4.11, 4.11, 4.11, 4.6, 4.6, 4.6, 4.6, 5.02, 5.09, 5.31, 5.31, 5.81, 5.6, 5.08, 4.65, 4.65, 5.01, 5.21, 4.94, 4.94, 4.94, 6.28, 6.28, 5.69, 5.03, 5.31, 5.03, 5.69, 5.37, 3.91, 4.75, 4.16, 5.1, 6.01, 5.59, 4.74, 4.58, 5.24, 5.36, 4.5, 4.12, 3.45, 3.52, 3.4, 3.33, 4.43, 13.88, 17.47, 14.05, 10.6, 8.6, 8.63, 9.63, 9.97, 8.82, 9.72, 10.32, 10.0, 8.93, 8.3, 8.3, 8.76, 9.06, 8.95, 10.01, 7.78, 6.88, 7.27, 7.27, 7.59, 7.94, 8.22, 8.22, 4.6, 4.6, 4.6, 4.6, 5.02, 5.02, 4.8, 4.8, 4.4, 4.4, 4.4, 4.27, 3.88, 3.88, 4.11, 4.11, 4.11, 3.6, 3.6, 3.6, 3.6, 3.6, 3.6, 3.6, 3.6, 4.11, 4.11, 4.52, 4.6, 4.6, 4.6, 5.02, 5.02, 5.02, 4.9, 5.31, 5.81, 5.6, 5.21, 5.01, 4.65, 4.65, 5.21, 5.21, 5.21, 5.21, 5.21, 5.75, 5.75, 5.58, 4.71, 6.63, 5.37, 5.37, 3.91, 4.75, 5.03, 4.16, 4.96, 5.21, 5.59, 4.58, 4.68, 5.1, 4.5, 4.12, 4.34, 4.34, 5.36, 6.16, 8.01, 11.15, 16.76, 16.31, 14.71, 11.61, 9.26, 9.35, 10.28, 8.49, 8.05, 7.89, 7.32, 6.51, 7.64, 8.42, 9.17, 8.76, 9.36, 10.07, 11.79, 8.27, 7.31, 7.35, 6.58, 7.59, 7.9, 7.9, 4.6, 4.6, 4.6, 5.09, 5.09, 5.09, 5.09, 5.02, 4.8, 4.6, 4.6, 4.6, 4.52, 4.11, 4.11, 4.11, 3.7, 3.6, 3.6, 3.6, 3.6, 3.6, 3.6, 3.6, 4.11, 4.11, 4.11, 4.52, 4.6, 4.6, 5.02, 5.02, 5.09, 5.09, 5.09, 5.31, 5.31, 5.47, 5.21, 5.01, 4.65, 4.65, 5.21, 5.21, 5.21, 5.21, 5.6, 5.6, 5.6, 5.47, 5.08, 4.37, 5.37, 4.14, 5.03, 5.03, 4.75, 3.91, 3.6, 5.21, 6.3, 6.64, 5.37, 4.68, 4.26, 3.63, 4.34, 5.21, 6.73, 7.42, 8.14, 10.91, 11.87, 15.35, 15.47, 13.25, 8.91, 6.71, 6.26, 6.26, 5.94, 5.15, 4.96, 5.41, 7.36, 9.06, 9.36, 9.36, 9.06, 9.8, 11.47, 10.18, 7.64, 6.64, 6.58, 7.9, 7.94, 7.94, 4.6, 4.6, 5.09, 5.09, 5.09, 5.09, 5.09, 5.09, 5.02, 5.02, 4.6, 4.6, 4.6, 4.11, 4.3, 3.87, 3.87, 3.39, 3.39, 3.6, 3.6, 3.6, 3.6, 3.7, 4.11, 4.11, 4.11, 4.11, 4.6, 4.6, 4.6, 5.02, 5.09, 5.09, 5.09, 5.02, 4.8, 4.55, 4.65, 4.65, 4.65, 4.65, 4.65, 5.21, 5.21, 5.47, 5.6, 5.81, 5.31, 4.9, 4.27, 3.48, 3.49, 3.49, 4.58, 4.58, 5.03, 3.91, 3.55, 4.42, 6.95, 6.73, 6.64, 4.68, 3.7, 3.45, 4.34, 6.32, 7.06, 8.4, 9.24, 10.45, 11.61, 12.7, 14.26, 14.51, 11.04, 5.2, 3.39, 4.4, 4.74, 4.71, 4.4, 5.09, 7.09, 8.37, 9.7, 10.01, 9.8, 9.89, 9.48, 10.78, 9.17, 7.13, 6.58, 7.27, 7.96, 7.96, 5.24, 5.24, 5.24, 5.09, 5.09, 5.09, 5.09, 5.09, 5.09, 5.09, 4.6, 4.6, 4.6, 4.77, 4.34, 4.43, 3.54, 3.53, 3.39, 3.39, 3.6, 3.6, 3.7, 4.11, 4.11, 4.11, 4.11, 4.11, 4.6, 4.6, 4.6, 4.6, 5.02, 5.09, 5.09, 4.6, 4.4, 4.37, 4.41, 4.65, 4.65, 4.65, 4.65, 4.65, 5.08, 5.31, 5.57, 5.57, 5.09, 4.6, 3.78, 3.49, 3.78, 3.78, 4.11, 5.06, 5.37, 3.91, 3.55, 4.42, 6.11, 7.15, 6.01, 4.5, 4.12, 4.66, 6.01, 6.82, 7.76, 8.82, 9.97, 10.89, 10.89, 10.89, 11.09, 13.19, 13.49, 10.04, 6.6, 5.21, 5.69, 3.85, 4.45, 6.2, 7.15, 7.85, 8.79, 10.51, 10.18, 9.17, 9.17, 10.22, 10.51, 7.85, 7.27, 7.64, 7.64, 7.64, 5.24, 5.24, 5.24, 5.24, 5.09, 5.09, 5.09, 5.09, 5.09, 5.09, 5.09, 4.77, 4.77, 4.77, 4.89, 4.47, 4.02, 3.09, 2.91, 3.39, 3.39, 3.87, 3.87, 4.3, 4.3, 4.3, 4.3, 4.3, 4.6, 4.6, 4.6, 4.6, 4.6, 4.8, 4.8, 4.77, 4.27, 4.07, 4.07, 4.41, 4.29, 4.07, 4.07, 5.58, 5.49, 5.08, 5.57, 4.8, 3.88, 3.88, 3.48, 3.78, 3.83, 4.11, 4.11, 4.41, 5.37, 4.56, 3.72, 4.58, 5.37, 6.11, 5.24, 4.5, 4.34, 5.36, 6.73, 7.2, 7.37, 8.33, 9.06, 10.68, 11.18, 10.6, 10.25, 10.89, 12.15, 12.65, 11.04, 8.4, 6.79, 4.47, 5.45, 6.06, 7.9, 8.27, 8.94, 9.66, 9.62, 9.26, 8.93, 9.62, 10.19, 9.2, 8.27, 7.64, 7.64, 7.64, 5.24, 5.24, 5.24, 5.24, 5.24, 5.09, 5.09, 5.09, 5.09, 5.09, 5.24, 5.24, 4.77, 4.89, 5.33, 5.36, 4.47, 3.58, 3.07, 3.07, 3.53, 3.97, 4.02, 3.98, 4.43, 4.44, 4.34, 4.34, 4.34, 4.77, 4.77, 4.77, 4.77, 4.8, 4.89, 4.77, 3.88, 3.73, 3.79, 4.41, 4.07, 4.07, 4.37, 4.0, 4.07, 6.6, 6.57, 4.27, 3.79, 4.11, 4.11, 4.37, 4.11, 4.37, 4.65, 4.65, 4.07, 4.07, 4.74, 4.74, 5.49, 5.37, 5.24, 4.68, 4.42, 4.42, 5.89, 8.24, 6.8, 6.88, 7.12, 8.63, 12.15, 13.01, 10.73, 8.94, 9.24, 10.96, 11.88, 10.66, 8.42, 5.06, 6.32, 7.51, 7.64, 8.88, 8.05, 7.67, 7.92, 7.95, 8.32, 10.04, 10.09, 9.96, 8.93, 8.27, 7.9, 7.9, 5.24, 5.24, 5.24, 5.24, 5.24, 5.67, 5.51, 5.57, 5.51, 5.67, 5.24, 5.24, 5.24, 5.33, 5.81, 5.81, 5.36, 4.02, 3.07, 2.63, 3.07, 3.13, 3.13, 3.58, 4.02, 4.02, 4.43, 4.44, 4.44, 4.88, 4.88, 4.88, 4.88, 5.33, 5.33, 4.8, 4.27, 3.73, 3.79, 4.11, 4.07, 4.07, 4.0, 4.0, 4.0, 6.16, 6.21, 4.65, 4.71, 4.71, 4.65, 4.65, 4.65, 4.65, 4.65, 4.65, 4.93, 4.37, 3.78, 4.43, 4.74, 5.49, 5.37, 4.29, 4.29, 3.91, 4.29, 6.32, 7.56, 7.33, 5.82, 6.79, 10.66, 14.71, 13.18, 8.49, 7.1, 8.17, 10.43, 11.28, 9.82, 8.94, 7.35, 8.28, 8.1, 5.4, 2.68, 4.19, 6.4, 7.03, 8.14, 9.08, 9.84, 9.92, 9.57, 8.9, 9.23, 9.23, 5.24, 5.24, 5.24, 5.26, 5.7, 5.7, 5.7, 5.57, 5.7, 5.7, 5.7, 5.7, 5.24, 5.33, 5.81, 6.26, 5.81, 4.92, 3.58, 3.98, 3.13, 3.13, 3.13, 3.13, 3.58, 3.58, 4.02, 4.02, 6.26, 4.47, 4.92, 4.88, 4.89, 5.33, 5.34, 5.24, 4.6, 4.0, 3.49, 3.79, 4.07, 4.07, 4.37, 4.0, 4.27, 4.8, 5.08, 5.21, 5.21, 5.21, 4.65, 4.55, 4.55, 4.55, 4.55, 4.93, 4.93, 4.55, 4.0, 3.43, 4.43, 4.74, 5.58, 4.46, 4.89, 4.54, 3.48, 5.36, 7.44, 8.37, 7.15, 6.79, 9.6, 15.02, 15.56, 10.69, 6.45, 6.82, 9.42, 10.65, 10.73, 10.48, 10.68, 8.48, 7.74, 4.34, 0.63, -0.0, 4.98, 6.98, 7.89, 8.63, 8.88, 9.57, 9.56, 9.56, 9.53, 9.53, 5.33, 5.33, 5.26, 5.7, 5.7, 5.7, 5.7, 5.7, 5.7, 5.7, 5.7, 5.7, 5.26, 5.33, 5.81, 6.26, 6.71, 6.71, 5.81, 5.33, 4.44, 3.98, 3.13, 3.13, 3.13, 3.13, 3.58, 4.02, 4.47, 6.26, 4.47, 4.92, 4.92, 5.36, 5.81, 5.34, 4.6, 4.0, 3.79, 3.79, 4.07, 4.07, 4.37, 4.37, 4.37, 4.8, 4.8, 4.93, 5.08, 4.93, 4.55, 4.55, 4.55, 4.55, 4.55, 4.55, 4.55, 4.55, 4.0, 3.78, 3.78, 4.89, 5.72, 4.54, 4.54, 4.54, 4.6, 4.22, 6.64, 8.63, 8.43, 8.4, 9.24, 13.76, 17.13, 13.23, 7.76, 7.76, 9.33, 10.6, 11.03, 11.03, 10.75, 10.49, 6.61, 2.63, 0.0, 0.0, 4.92, 7.15, 8.0, 7.47, 8.3, 9.57, 10.55, 10.58, 10.18, 10.18, 5.33, 5.33, 5.26, 5.7, 5.7, 5.7, 5.7, 5.7, 5.7, 6.14, 5.7, 5.7, 5.7, 5.78, 6.26, 6.71, 6.71, 6.71, 6.71, 6.23, 6.23, 5.34, 4.88, 4.02, 3.58, 3.13, 3.13, 3.58, 4.02, 4.47, 4.47, 4.47, 4.92, 5.36, 5.36, 5.36, 4.77, 3.88, 3.48, 3.79, 4.07, 4.07, 4.37, 4.37, 4.37, 4.55, 4.8, 4.8, 4.8, 4.55, 4.55, 4.37, 4.55, 4.55, 4.55, 4.55, 4.55, 4.55, 4.55, 4.0, 5.72, 5.36, 5.36, 5.36, 4.6, 4.54, 4.54, 5.21, 6.64, 8.0, 7.81, 9.6, 10.91, 12.49, 15.01, 13.91, 10.32, 9.06, 9.28, 10.26, 10.7, 10.18, 9.72, 9.11, 7.71, 2.17, 0.45, 0.8, 5.36, 7.1, 8.06, 8.4, 8.55, 9.56, 10.55, 11.18, 10.55, 10.55, 5.34, 5.34, 5.78, 5.7, 5.7, 5.7, 5.7, 5.7, 6.14, 6.16, 6.16, 5.7, 5.7, 5.78, 6.23, 7.15, 7.15, 6.71, 6.71, 6.68, 6.61, 6.61, 6.6, 5.78, 5.33, 4.47, 3.58, 3.58, 3.58, 3.58, 4.02, 4.47, 4.47, 4.89, 5.33, 4.92, 4.44, 3.72, 3.48, 3.48, 4.07, 3.73, 3.73, 4.0, 4.0, 4.4, 4.4, 4.4, 4.4, 4.4, 4.27, 4.27, 4.27, 4.4, 4.37, 4.55, 4.55, 4.37, 4.0, 3.48, 2.86, 4.29, 5.36, 5.36, 6.0, 5.01, 4.89, 5.58, 6.21, 6.82, 7.67, 9.6, 11.56, 12.74, 13.62, 12.56, 11.92, 10.68, 9.79, 9.39, 8.49, 8.01, 7.45, 6.94, 6.44, 3.07, 2.63, 6.2, 7.63, 8.3, 9.03, 9.65, 10.04, 10.09, 10.48, 10.48, 10.55, 10.55, 5.34, 5.34, 5.78, 5.7, 5.7, 5.7, 5.7, 5.7, 6.16, 6.16, 6.16, 6.14, 5.7, 6.23, 6.71, 7.15, 7.15, 6.71, 6.68, 6.68, 6.61, 6.61, 7.06, 7.06, 6.61, 5.79, 5.36, 4.47, 3.58, 3.53, 3.53, 3.98, 4.43, 4.44, 4.88, 4.88, 4.02, 3.6, 3.43, 3.48, 3.48, 3.48, 3.73, 4.27, 4.27, 4.27, 4.4, 4.6, 4.52, 4.27, 4.27, 4.27, 4.27, 4.27, 4.0, 4.0, 4.37, 4.37, 4.0, 3.43, 3.43, 3.43, 6.4, 5.6, 5.6, 6.0, 5.2, 6.0, 6.21, 6.21, 8.22, 8.4, 11.62, 12.98, 12.8, 11.37, 11.5, 10.96, 9.75, 7.71, 6.28, 6.28, 6.4, 6.44, 7.06, 7.69, 8.05, 9.03, 9.42, 9.65, 10.23, 10.63, 10.96, 10.55, 9.74, 9.45, 9.9, 9.9, 5.78, 5.78, 5.78, 5.7, 5.7, 5.7, 5.7, 6.16, 6.16, 6.16, 6.16, 6.16, 6.23, 6.68, 6.71, 7.15, 6.71, 6.71, 6.68, 6.61, 6.61, 6.61, 7.06, 7.06, 7.06, 7.13, 6.68, 5.81, 4.92, 4.47, 4.47, 3.98, 4.47, 4.47, 4.88, 4.88, 4.47, 3.7, 3.43, 3.48, 3.48, 3.78, 3.78, 5.6, 4.11, 4.11, 4.19, 4.11, 4.11, 3.88, 3.88, 4.27, 4.27, 4.0, 4.0, 4.0, 4.0, 4.0, 4.0, 3.43, 3.43, 3.43, 6.0, 5.6, 5.6, 6.64, 5.2, 5.6, 5.82, 5.82, 6.8, 7.44, 10.16, 13.99, 13.64, 11.11, 10.18, 10.85, 9.9, 7.42, 5.82, 5.43, 6.06, 7.02, 8.3, 9.56, 9.9, 9.9, 10.63, 10.8, 10.8, 11.09, 10.95, 10.32, 9.36, 8.55, 8.55, 8.88, 5.78, 5.78, 5.78, 5.78, 5.7, 5.7, 6.16, 6.16, 6.16, 6.16, 6.16, 6.23, 6.68, 6.71, 7.15, 7.15, 7.15, 6.68, 6.68, 6.61, 6.61, 7.13, 7.13, 7.13, 7.13, 7.13, 7.13, 6.68, 6.23, 5.81, 5.36, 5.36, 4.92, 4.92, 4.92, 4.92, 4.92, 4.11, 3.43, 3.48, 3.48, 3.43, 3.43, 4.89, 4.27, 4.6, 4.3, 4.11, 4.11, 3.88, 4.27, 4.27, 4.27, 4.27, 4.0, 4.0, 4.27, 4.0, 4.27, 3.72, 3.43, 3.43, 6.0, 5.51, 5.94, 6.0, 6.0, 5.21, 5.15, 5.82, 5.82, 7.44, 9.48, 13.19, 16.31, 12.45, 9.24, 8.9, 8.4, 7.03, 6.06, 6.32, 7.31, 8.3, 9.56, 10.53, 11.04, 10.8, 11.09, 11.09, 10.95, 11.18, 10.68, 9.66, 8.72, 7.89, 7.89, 8.55, 5.78, 5.78, 5.78, 5.78, 6.16, 6.16, 6.16, 6.16, 6.16, 6.16, 6.68, 6.68, 6.71, 7.15, 7.15, 7.15, 7.15, 6.68, 6.68, 7.13, 7.13, 7.13, 7.13, 7.13, 7.13, 7.13, 7.13, 6.68, 6.68, 6.68, 6.23, 6.23, 5.78, 5.78, 5.78, 5.81, 5.36, 4.19, 3.43, 3.48, 3.48, 3.43, 3.16, 3.43, 5.6, 4.6, 4.11, 4.11, 3.88, 4.27, 4.27, 4.27, 4.27, 4.27, 4.27, 4.27, 4.27, 4.27, 4.27, 3.88, 3.72, 3.72, 3.6, 6.0, 6.0, 6.0, 4.98, 4.89, 5.15, 5.49, 5.82, 6.18, 8.54, 11.6, 15.23, 14.46, 10.18, 7.15, 6.64, 6.08, 7.02, 7.64, 8.3, 9.56, 10.15, 11.44, 11.2, 11.62, 11.37, 11.18, 11.18, 10.68, 9.75, 8.56, 7.63, 7.63, 7.21, 7.89, 5.78, 5.78, 5.78, 6.23, 6.23, 6.16, 6.16, 6.16, 6.16, 6.68, 6.68, 7.15, 7.15, 7.15, 7.15, 7.15, 7.15, 7.13, 7.13, 7.13, 7.13, 7.13, 7.15, 7.15, 7.13, 6.68, 6.68, 6.68, 6.68, 6.68, 6.68, 6.23, 6.23, 5.79, 6.23, 6.26, 5.78, 4.6, 3.43, 3.48, 3.78, 3.43, 3.35, 3.35, 4.11, 5.6, 4.27, 4.27, 4.27, 4.27, 4.27, 4.27, 4.27, 4.27, 4.27, 4.27, 4.27, 4.27, 4.27, 3.88, 3.35, 3.14, 5.6, 6.0, 6.0, 5.36, 4.98, 4.43, 4.89, 5.49, 6.18, 6.18, 8.0, 9.6, 11.88, 15.07, 14.26, 9.9, 6.57, 6.79, 7.96, 8.94, 9.19, 9.9, 10.65, 11.47, 12.14, 11.87, 11.37, 11.18, 10.89, 9.97, 8.56, 7.53, 6.94, 6.94, 6.94, 6.94, 5.78, 5.78, 5.78, 6.23, 6.23, 6.23, 6.23, 6.23, 6.71, 6.71, 7.15, 7.15, 7.15, 7.15, 7.15, 7.15, 7.13, 7.13, 7.13, 7.13, 7.15, 7.15, 7.15, 7.15, 7.13, 7.13, 6.68, 6.68, 6.68, 6.68, 6.68, 6.23, 6.23, 6.23, 6.23, 6.26, 5.78, 4.6, 3.43, 3.78, 3.78, 3.43, 3.72, 3.35, 3.6, 4.11, 4.4, 4.4, 4.4, 4.27, 4.27, 4.27, 4.27, 4.27, 4.27, 4.27, 4.27, 4.27, 4.27, 3.88, 3.35, 3.14, 3.35, 6.0, 6.0, 5.72, 5.36, 4.43, 4.54, 5.15, 5.82, 6.21, 7.6, 8.4, 10.16, 12.82, 16.48, 16.48, 11.04, 8.43, 8.3, 9.52, 9.9, 10.4, 10.53, 11.79, 11.87, 11.45, 11.61, 11.18, 9.97, 8.14, 6.7, 6.45, 6.64, 6.64, 6.64, 6.64, 5.79, 5.79, 6.23, 6.23, 6.23, 6.23, 6.23, 6.71, 6.71, 6.71, 7.15, 7.15, 7.15, 7.15, 7.15, 7.13, 7.13, 7.13, 7.13, 7.15, 7.15, 7.15, 7.15, 7.15, 7.13, 7.13, 7.13, 7.13, 6.68, 6.68, 6.68, 6.68, 6.23, 6.23, 6.23, 6.23, 5.78, 4.6, 3.64, 3.78, 3.78, 3.43, 3.72, 3.72, 3.6, 4.11, 4.52, 4.6, 4.27, 4.27, 4.27, 4.27, 4.27, 4.27, 4.27, 4.27, 4.27, 4.27, 4.11, 3.88, 3.35, 3.14, 3.14, 5.6, 6.0, 5.36, 5.72, 5.36, 4.89, 5.58, 6.21, 6.4, 6.8, 8.0, 9.03, 10.28, 14.46, 17.48, 15.12, 11.04, 9.42, 9.2, 9.45, 10.0, 10.79, 11.03, 11.37, 11.61, 11.18, 9.24, 7.2, 5.6, 5.51, 6.2, 6.71, 6.26, 6.26, 6.26, 6.23, 6.23, 6.23, 6.23, 6.71, 6.71, 6.71, 6.71, 6.71, 7.15, 7.15, 7.15, 7.15, 7.15, 7.13, 7.13, 7.13, 7.13, 7.13, 7.15, 7.15, 7.15, 7.15, 7.15, 7.13, 7.13, 7.13, 7.13, 7.13, 6.68, 6.68, 6.68, 6.68, 6.6, 6.68, 6.23, 5.78, 4.6, 4.0, 3.78, 3.78, 3.43, 3.72, 3.72, 3.72, 4.11, 4.11, 4.11, 3.88, 3.88, 3.88, 3.88, 4.27, 4.27, 4.27, 4.27, 4.27, 4.52, 3.88, 3.88, 3.72, 3.14, 3.14, 3.6, 6.0, 6.0, 5.72, 5.21, 5.21, 5.21, 7.06, 5.82, 6.44, 7.44, 9.03, 10.0, 12.15, 15.35, 15.86, 13.26, 11.03, 9.45, 9.2, 9.74, 10.27, 10.27, 10.52, 10.43, 8.4, 6.21, 4.43, 4.82, 5.81, 6.26, 6.26, 6.26, 6.26, 6.26, 6.68, 6.68, 6.68, 6.68, 6.68, 7.13, 7.13, 7.15, 7.15, 7.15, 7.15, 7.15, 7.13, 7.13, 7.13, 7.13, 7.13, 7.15, 7.15, 7.15, 7.6, 7.15, 7.13, 7.13, 7.13, 7.13, 7.13, 7.13, 7.13, 6.68, 6.68, 6.68, 6.61, 6.61, 6.68, 6.68, 5.78, 4.6, 4.0, 3.78, 4.0, 3.43, 3.72, 3.72, 3.72, 4.11, 4.11, 4.11, 3.88, 3.88, 3.72, 3.72, 3.88, 3.88, 3.88, 4.27, 4.27, 3.88, 3.88, 3.88, 3.72, 3.35, 3.14, 3.6, 3.6, 6.0, 6.0, 5.2, 5.6, 5.6, 5.75, 6.21, 6.18, 7.82, 8.95, 9.9, 11.37, 13.11, 13.87, 13.89, 13.26, 11.64, 9.77, 8.24, 9.34, 10.27, 10.01, 7.6, 4.74, 3.22, 4.4, 4.92, 5.81, 5.81, 6.26, 6.26, 6.26, 6.26, 6.68, 6.68, 7.13, 7.13, 7.13, 7.13, 7.13, 7.13, 7.13, 7.13, 7.13, 7.13, 7.13, 7.13, 7.13, 7.13, 7.15, 7.15, 7.15, 7.15, 7.6, 7.15, 7.13, 7.13, 7.13, 7.13, 7.13, 7.13, 7.13, 6.68, 6.68, 6.68, 6.61, 6.61, 7.13, 6.68, 5.78, 4.6, 4.0, 3.73, 4.0, 4.0, 3.72, 3.72, 3.72, 3.88, 3.88, 3.88, 3.88, 3.72, 3.72, 3.72, 3.88, 3.88, 3.88, 3.88, 3.88, 3.88, 3.88, 3.72, 3.72, 3.35, 3.35, 3.2, 3.82, 6.51, 6.07, 6.07, 5.6, 5.6, 5.21, 6.21, 6.8, 7.76, 8.72, 9.36, 10.43, 11.75, 12.27, 12.26, 13.89, 13.87, 10.04, 7.6, 8.55, 9.08, 8.0, 4.81, 2.2, 3.6, 4.47, 5.36, 5.81, 5.73, 6.2, 6.45, 6.45, 6.45, 6.68, 6.68, 7.13, 7.13, 7.13, 7.13, 7.13, 7.13, 7.13, 7.13, 7.13, 7.13, 7.13, 7.13, 7.13, 7.15, 7.15, 7.15, 7.15, 7.15, 7.6, 7.15, 7.13, 7.13, 7.13, 7.13, 7.13, 7.13, 7.13, 7.13, 6.68, 6.68, 6.61, 7.06, 7.13, 6.68, 5.78, 4.6, 4.0, 3.73, 4.0, 4.0, 3.43, 3.72, 3.72, 3.88, 4.27, 3.88, 3.72, 3.72, 3.72, 3.88, 3.88, 3.88, 4.11, 4.11, 4.11, 3.88, 3.88, 3.72, 3.72, 3.35, 3.6, 3.6, 3.82, 6.51, 6.07, 5.6, 5.6, 5.6, 6.16, 6.21, 6.8, 7.76, 8.0, 8.63, 9.6, 10.28, 11.28, 11.9, 13.26, 14.51, 12.27, 8.3, 6.94, 6.94, 5.82, 3.35, 2.53, 3.9, 4.92, 5.26, 5.73, 5.94, 6.57, 6.8, 6.8, 6.8, 6.68, 6.68, 7.13, 7.13, 7.13, 7.13, 7.13, 7.13, 7.13, 7.13, 7.13, 7.13, 7.15, 7.15, 7.15, 7.15, 7.15, 7.15, 7.15, 7.15, 7.15, 7.15, 7.15, 7.13, 7.13, 7.13, 7.13, 7.13, 7.13, 7.13, 6.68, 6.61, 6.61, 7.06, 7.13, 7.13, 5.7, 4.4, 4.0, 3.73, 4.0, 3.78, 3.43, 3.72, 3.72, 3.88, 4.27, 3.88, 3.72, 3.72, 3.72, 3.88, 3.88, 4.11, 4.11, 4.11, 4.11, 4.11, 4.11, 4.0, 3.72, 3.35, 3.6, 3.39, 3.82, 5.51, 5.2, 5.6, 5.6, 5.6, 6.16, 6.16, 6.8, 7.42, 8.05, 8.42, 9.05, 9.3, 10.28, 11.25, 12.89, 13.88, 13.18, 10.28, 6.44, 4.81, 4.19, 3.48, 4.6, 5.09, 4.85, 5.51, 6.0, 6.21, 7.2, 7.42, 7.42, 7.42, 6.68, 6.71, 7.15, 7.15, 7.15, 7.15, 7.15, 7.15, 7.15, 7.15, 7.15, 7.15, 7.15, 7.15, 7.15, 7.6, 7.15, 7.15, 7.15, 7.15, 7.15, 7.15, 7.13, 7.13, 7.13, 7.58, 7.58, 7.15, 7.13, 7.13, 7.13, 7.06, 7.06, 7.06, 7.13, 6.68, 5.7, 4.4, 3.73, 3.73, 4.0, 3.43, 3.43, 3.72, 3.88, 3.88, 3.88, 3.88, 3.72, 3.72, 3.72, 3.88, 4.11, 4.11, 4.11, 4.11, 4.11, 4.11, 3.6, 3.6, 3.6, 3.6, 3.6, 3.39, 3.39, 4.98, 4.98, 5.6, 6.0, 6.0, 5.58, 6.57, 6.57, 6.82, 7.44, 8.06, 8.38, 8.65, 9.66, 11.28, 12.27, 12.89, 13.23, 12.62, 9.04, 5.15, 5.21, 4.84, 5.21, 6.0, 5.82, 5.75, 6.0, 7.2, 7.82, 8.4, 8.4, 8.4, 6.71, 6.71, 7.15, 7.15, 7.15, 7.15, 7.15, 7.15, 7.15, 7.15, 7.15, 7.15, 7.15, 7.15, 7.15, 7.15, 7.15, 7.15, 7.15, 7.15, 7.15, 7.15, 7.15, 7.13, 7.13, 7.58, 7.6, 7.6, 7.13, 7.13, 7.13, 7.06, 7.06, 7.13, 7.13, 6.68, 5.24, 4.27, 3.73, 3.73, 3.78, 3.43, 3.43, 3.72, 3.88, 3.88, 3.88, 3.88, 3.72, 3.72, 3.88, 4.11, 4.11, 4.11, 4.11, 4.11, 4.11, 3.7, 3.7, 3.6, 3.6, 3.6, 3.6, 3.39, 2.91, 3.39, 4.98, 4.98, 5.58, 5.15, 5.49, 6.18, 5.49, 5.49, 6.45, 7.06, 7.68, 8.38, 9.67, 10.66, 11.28, 11.9, 12.89, 13.49, 6.39, 5.46, 5.43, 5.2, 5.2, 6.07, 7.03, 6.64, 7.2, 7.82, 8.05, 8.43, 8.43, 8.43, 6.71, 6.71, 7.15, 7.15, 7.15, 7.15, 7.15, 7.15, 7.15, 7.15, 7.15, 7.15, 7.15, 7.15, 7.15, 7.15, 7.15, 7.15, 7.15, 7.15, 7.15, 7.15, 7.15, 7.15, 7.15, 7.6, 7.6, 7.6, 7.13, 7.13, 7.13, 7.13, 7.13, 7.13, 7.13, 6.71, 5.24, 4.27, 3.48, 3.73, 3.78, 3.43, 3.72, 3.35, 4.11, 4.11, 3.88, 3.88, 3.72, 3.72, 4.11, 4.11, 4.11, 3.6, 3.6, 3.7, 3.7, 3.7, 3.6, 3.6, 3.6, 3.6, 3.39, 3.39, 3.07, 3.07, 4.4, 4.6, 4.89, 5.15, 5.49, 5.77, 5.37, 5.37, 5.37, 6.01, 7.35, 9.05, 9.65, 9.67, 10.29, 11.25, 13.51, 11.6, 6.7, 5.21, 4.84, 4.8, 4.8, 6.4, 7.28, 7.67, 7.81, 7.81, 8.82, 8.82, 8.82, 8.82, 6.71, 6.71, 7.15, 7.15, 7.15, 7.15, 7.15, 7.15, 7.15, 7.15, 7.15, 7.15, 7.15, 7.15, 7.15, 7.15, 7.15, 7.15, 7.15, 7.15, 7.15, 7.15, 7.15, 7.15, 7.15, 7.6, 7.6, 7.6, 7.13, 7.13, 7.13, 7.13, 7.13, 7.13, 7.15, 6.26, 4.77, 3.88, 3.48, 3.48, 3.43, 3.43, 3.35, 3.35, 4.11, 4.11, 4.11, 3.72, 4.0, 4.0, 4.11, 4.11, 3.87, 3.82, 3.82, 3.82, 3.82, 3.82, 3.82, 3.6, 3.6, 3.2, 3.39, 3.39, 3.07, 2.6, 2.4, 2.68, 4.98, 5.6, 5.58, 5.49, 5.37, 5.37, 5.37, 6.01, 7.06, 8.03, 9.04, 9.0, 9.27, 10.9, 16.06, 12.62, 6.07, 3.84, 4.19, 4.54, 4.81, 6.44, 7.67, 7.69, 8.18, 8.18, 8.82, 9.42, 9.42, 9.42, 6.71, 6.71, 6.71, 7.15, 7.15, 7.15, 7.15, 7.15, 7.15, 7.15, 7.15, 7.15, 7.15, 7.15, 7.15, 7.15, 7.15, 7.15, 7.15, 7.15, 7.15, 7.15, 7.15, 7.15, 7.15, 7.15, 7.15, 7.15, 7.15, 7.15, 7.15, 7.15, 7.15, 7.15, 7.15, 6.26, 4.77, 3.72, 3.78, 3.78, 3.43, 3.09, 3.35, 3.6, 4.11, 4.11, 4.11, 3.6, 3.6, 3.7, 3.87, 4.3, 3.97, 3.53, 3.39, 3.39, 3.82, 3.82, 3.82, 3.82, 3.2, 3.39, 3.39, 3.53, 3.07, 2.17, 2.17, 3.07, 4.98, 5.2, 5.6, 5.58, 5.58, 5.49, 5.49, 5.49, 6.01, 7.35, 8.31, 8.6, 8.93, 10.58, 16.49, 14.88, 7.81, 3.79, 4.74, 5.37, 5.77, 6.7, 7.69, 8.3, 8.43, 8.43, 8.82, 9.03, 9.03, 9.03, 6.71, 6.71, 6.71, 6.71, 6.71, 6.71, 7.15, 7.15, 7.15, 7.15, 7.15, 7.15, 7.15, 7.15, 7.15, 7.15, 7.15, 7.15, 7.15, 7.15, 7.15, 7.15, 7.15, 7.15, 7.15, 7.15, 7.15, 7.15, 7.15, 7.15, 7.15, 7.15, 7.15, 7.15, 7.15, 5.81, 4.34, 3.72, 3.43, 3.43, 3.43, 3.14, 3.35, 3.6, 3.7, 3.7, 3.7, 3.6, 3.7, 3.87, 4.43, 4.43, 3.58, 3.07, 3.07, 3.32, 3.39, 3.39, 3.82, 3.39, 3.39, 3.32, 3.39, 3.51, 3.07, 2.6, 2.17, 2.63, 3.39, 5.51, 5.94, 5.6, 5.21, 5.15, 5.49, 5.49, 5.49, 6.73, 7.68, 7.9, 8.93, 11.9, 15.12, 17.1, 12.27, 5.37, 4.65, 6.01, 6.68, 7.06, 7.69, 8.3, 8.3, 8.43, 8.8, 9.36, 9.36, 9.36, 6.71, 6.71, 6.71, 6.71, 6.71, 6.71, 6.71, 7.15, 7.15, 7.15, 7.15, 7.15, 7.15, 7.15, 7.15, 7.15, 7.15, 7.15, 7.15, 7.15, 7.15, 7.15, 7.15, 7.15, 7.15, 7.15, 7.15, 7.15, 7.15, 7.15, 7.15, 7.15, 7.15, 7.15, 6.71, 5.81, 4.3, 3.35, 3.43, 3.43, 2.84, 3.14, 3.6, 3.6, 3.7, 3.87, 3.87, 3.87, 3.87, 4.43, 4.47, 4.02, 3.13, 2.6, 2.63, 3.07, 3.53, 3.53, 3.39, 3.39, 3.32, 3.32, 2.91, 3.07, 3.07, 2.6, 2.6, 2.63, 3.53, 5.73, 5.51, 4.89, 4.89, 5.15, 5.49, 5.49, 5.49, 5.77, 6.73, 7.68, 9.67, 11.26, 13.43, 16.45, 14.88, 8.73, 5.3, 6.24, 7.31, 7.33, 7.33, 7.95, 8.88, 9.03, 8.8, 9.24, 9.24, 9.24, 6.71, 6.71, 6.71, 6.71, 6.71, 6.71, 6.71, 6.71, 7.15, 7.15, 7.15, 7.15, 7.15, 7.15, 7.15, 7.15, 7.15, 7.15, 7.15, 6.71, 6.71, 7.15, 7.15, 7.15, 7.15, 7.15, 7.15, 7.15, 7.15, 7.15, 7.15, 6.71, 6.71, 7.15, 6.71, 5.36, 4.3, 3.35, 3.72, 3.43, 3.14, 3.14, 3.6, 3.82, 3.87, 3.87, 3.87, 3.98, 3.98, 4.47, 4.47, 4.02, 3.07, 2.6, 2.6, 3.07, 3.07, 3.53, 3.53, 3.53, 2.91, 2.91, 2.91, 3.07, 3.07, 2.63, 2.63, 2.63, 3.07, 4.98, 4.98, 4.89, 4.89, 4.43, 5.15, 5.06, 5.37, 6.18, 6.79, 9.03, 9.6, 10.96, 12.23, 14.95, 15.47, 10.63, 6.53, 6.64, 7.64, 7.64, 7.68, 8.32, 9.27, 9.42, 8.95, 9.24, 9.24, 9.24, 6.71, 6.71, 6.71, 6.71, 6.71, 6.71, 6.71, 6.71, 6.71, 7.15, 7.15, 7.15, 6.71, 6.71, 6.71, 6.71, 6.71, 6.71, 6.71, 6.71, 6.71, 7.15, 7.15, 7.15, 7.15, 7.15, 7.15, 7.15, 7.15, 7.15, 6.71, 6.71, 6.71, 6.71, 6.71, 5.36, 3.87, 3.6, 3.35, 3.35, 3.35, 3.6, 3.6, 3.82, 3.98, 3.98, 3.98, 3.98, 4.02, 4.47, 4.47, 3.98, 3.07, 2.6, 2.6, 2.68, 3.13, 3.13, 3.13, 3.07, 3.07, 3.07, 3.07, 3.07, 3.07, 2.63, 2.63, 2.63, 2.63, 2.91, 3.2, 4.98, 4.54, 4.89, 4.74, 5.49, 6.18, 6.55, 7.35, 8.82, 9.49, 10.15, 11.44, 14.39, 15.43, 11.64, 7.59, 6.95, 7.27, 7.94, 8.3, 8.93, 9.27, 9.42, 9.36, 9.24, 9.24, 9.24, 6.71, 6.71, 6.71, 6.71, 6.71, 6.71, 6.71, 6.71, 6.71, 6.71, 6.71, 6.71, 6.71, 6.71, 6.71, 6.71, 6.71, 6.71, 6.71, 6.71, 6.71, 6.71, 7.15, 7.15, 7.15, 7.15, 7.15, 7.15, 7.15, 6.71, 6.71, 6.71, 6.71, 6.71, 6.71, 5.36, 3.98, 3.2, 3.2, 3.6, 3.6, 3.6, 3.82, 3.97, 3.98, 4.02, 4.02, 4.02, 4.02, 4.02, 4.47, 3.98, 3.53, 3.07, 2.63, 3.13, 3.13, 3.13, 2.68, 2.63, 2.6, 2.6, 2.6, 2.68, 2.68, 2.68, 2.68, 2.68, 2.24, 2.6, 3.07, 4.57, 4.6, 5.36, 4.89, 5.58, 6.21, 6.8, 6.8, 7.42, 8.63, 9.65, 11.26, 13.43, 14.49, 12.26, 8.22, 7.13, 7.59, 8.27, 8.27, 8.58, 8.93, 9.27, 9.2, 8.67, 8.67, 8.67, 6.71, 6.71, 6.71, 6.71, 6.71, 6.71, 6.71, 6.71, 6.71, 6.71, 6.71, 6.71, 6.71, 6.71, 6.71, 6.71, 6.71, 6.71, 6.71, 6.71, 6.71, 6.71, 7.15, 7.15, 7.15, 7.15, 7.15, 7.15, 6.71, 6.71, 6.71, 6.71, 6.71, 6.71, 6.26, 5.36, 3.98, 3.39, 3.32, 3.39, 3.39, 3.39, 3.97, 3.98, 4.02, 4.02, 4.02, 4.02, 4.02, 4.02, 3.98, 3.98, 3.53, 3.07, 3.13, 3.13, 3.13, 2.68, 2.68, 2.24, 2.24, 2.68, 2.68, 2.68, 2.68, 2.68, 2.68, 2.68, 2.24, 2.24, 2.24, 3.07, 3.39, 6.0, 5.6, 6.16, 6.21, 6.44, 6.82, 7.07, 7.81, 9.05, 10.66, 12.27, 13.89, 12.57, 9.06, 7.36, 7.78, 8.22, 8.22, 9.0, 8.94, 8.93, 8.49, 7.82, 7.82, 7.82, 6.71, 6.71, 6.71, 6.71, 6.71, 6.71, 6.71, 6.71, 6.71, 6.71, 6.71, 6.71, 6.71, 6.71, 6.71, 6.71, 6.71, 6.71, 6.71, 6.71, 6.71, 6.71, 7.15, 7.15, 7.15, 7.15, 7.15, 7.15, 6.71, 6.71, 6.71, 6.71, 6.71, 6.71, 6.26, 5.36, 3.98, 3.39, 3.32, 3.39, 3.39, 3.39, 3.97, 3.98, 4.02, 4.02, 4.02, 4.02, 4.02, 4.02, 3.98, 3.98, 3.53, 3.07, 3.13, 3.13, 3.13, 2.68, 2.68, 2.24, 2.24, 2.68, 2.68, 2.68, 2.68, 2.68, 2.68, 2.68, 2.24, 2.24, 2.24, 3.07, 3.39, 6.0, 5.6, 6.16, 6.8, 6.44, 6.82, 7.07, 7.81, 8.67, 9.67, 10.66, 12.26, 11.82, 10.43, 8.3, 8.12, 8.12, 8.53, 8.93, 9.0, 9.04, 7.76, 6.11, 6.11, 6.11]}, {"header": {"dx": 0.06612293990616946, "dy": 0.0552356325346848, "nx": 98, "ny": 59, "la1": 35.046912555036876, "la2": 31.78801023549047, "lo1": -121.43107172385933, "lo2": -114.95102361305473, "refTime": "2026041118", "parameterCategory": 1, "parameterNumber": 3}, "data": [3.48, 3.48, 4.37, 4.55, 5.08, 5.4, 5.81, 6.47, 6.51, 7.06, 6.97, 6.3, 7.2, 6.18, 6.21, 5.82, 6.57, 6.57, 7.06, 7.2, 8.0, 8.18, 7.41, 6.64, 6.64, 6.18, 6.18, 5.36, 5.36, 4.26, 3.72, 2.8, 2.8, 1.08, -3.82, -4.47, -4.47, -3.9, -4.0, -4.6, -3.93, -1.27, 2.98, 5.06, 6.32, 6.32, 7.35, 8.02, 9.04, 9.4, 9.66, 9.62, 9.26, 8.85, 8.85, 8.42, 8.01, 7.51, 6.7, 6.7, 6.33, 6.08, 6.0, 5.9, 5.21, 5.21, 5.21, 6.04, 6.7, 6.57, 6.84, 6.84, 6.7, 6.7, 6.7, 6.0, 5.21, 4.43, 3.72, 3.2, 2.53, 0.0, 0.0, -1.4, -1.4, 0.0, 0.0, 3.93, 7.1, 8.9, 9.79, 10.14, 10.41, 10.6, 10.32, 10.0, 9.43, 9.43, 3.48, 3.48, 4.07, 4.55, 5.08, 5.81, 5.81, 6.47, 6.51, 7.06, 7.07, 8.56, 7.2, 6.44, 6.9, 7.06, 6.16, 7.06, 7.21, 6.7, 8.0, 8.63, 8.93, 8.24, 7.06, 6.64, 6.18, 5.36, 5.53, 5.24, 5.37, 6.11, 6.45, 4.42, -1.05, -5.26, -5.36, -4.92, -5.26, -5.51, -3.72, 3.16, 6.13, 7.42, 7.76, 8.02, 8.38, 8.73, 9.4, 9.0, 9.34, 9.26, 8.85, 8.16, 8.16, 7.51, 7.51, 6.7, 6.7, 6.33, 5.72, 5.86, 5.9, 4.96, 5.1, 5.36, 6.04, 6.7, 6.84, 7.24, 7.51, 6.7, 6.7, 6.7, 6.57, 5.9, 5.24, 4.43, 3.72, 3.2, 2.53, 0.0, 0.0, -1.4, -1.4, 0.0, 0.0, 3.93, 7.1, 8.9, 9.79, 10.14, 10.41, 10.6, 10.32, 10.0, 9.43, 9.43, 2.86, 3.48, 4.07, 4.55, 5.08, 5.81, 5.81, 6.47, 6.47, 6.61, 7.06, 6.94, 7.6, 6.82, 5.82, 6.16, 6.16, 6.16, 6.88, 8.06, 7.12, 7.6, 8.4, 8.73, 8.82, 6.95, 6.32, 6.01, 5.37, 6.55, 7.82, 8.8, 8.82, 7.9, 2.64, -1.84, -4.92, -5.36, -6.26, -4.57, 1.74, 7.21, 8.82, 9.03, 8.03, 8.02, 8.38, 9.04, 9.4, 9.34, 8.93, 8.53, 8.12, 7.64, 7.44, 6.7, 6.7, 6.7, 6.33, 5.72, 5.72, 6.0, 5.21, 4.83, 5.1, 6.53, 7.48, 8.42, 8.3, 7.38, 6.56, 6.08, 5.63, 6.0, 5.9, 6.32, 4.74, 4.29, 3.13, 3.2, 2.53, 1.6, 0.0, -1.9, -2.4, -1.74, 0.0, 5.4, 8.44, 9.79, 10.14, 9.97, 10.18, 10.32, 10.0, 9.43, 9.04, 8.79, 2.86, 3.79, 4.07, 4.29, 5.08, 5.81, 5.81, 6.04, 6.47, 6.61, 7.06, 6.94, 7.2, 6.44, 6.21, 6.16, 6.45, 6.45, 6.94, 7.12, 7.12, 7.06, 6.9, 7.2, 8.42, 9.46, 7.81, 6.55, 6.21, 7.53, 8.3, 9.24, 9.36, 9.32, 7.33, 3.4, 0.0, -3.48, -3.35, 0.99, 7.21, 9.97, 9.9, 8.42, 7.68, 8.38, 8.38, 9.04, 9.0, 9.34, 8.22, 7.64, 7.36, 7.36, 6.84, 6.45, 6.7, 6.33, 5.72, 5.72, 5.86, 5.64, 5.1, 5.24, 6.64, 8.31, 8.85, 9.17, 9.02, 8.2, 7.25, 6.7, 5.76, 5.13, 4.56, 4.74, 4.29, 4.02, 3.58, 3.58, 2.4, 2.21, 0.0, 0.0, 0.0, 1.6, 4.98, 8.0, 9.79, 10.58, 10.18, 10.6, 10.32, 10.32, 9.65, 9.04, 8.38, 8.82, 3.12, 3.49, 4.07, 4.29, 5.08, 5.31, 5.81, 5.99, 6.04, 6.6, 6.61, 6.94, 6.8, 6.32, 5.58, 6.16, 6.07, 6.45, 6.51, 7.37, 8.06, 7.63, 8.06, 8.4, 7.76, 8.93, 9.32, 9.45, 8.91, 7.63, 8.06, 8.06, 7.76, 6.79, 6.95, 6.95, 5.86, 4.2, 3.55, 7.2, 10.45, 10.41, 9.77, 9.05, 8.38, 8.38, 8.38, 8.73, 8.31, 8.22, 7.78, 7.48, 6.57, 6.84, 6.45, 6.7, 6.08, 6.08, 5.72, 5.86, 5.14, 5.1, 5.24, 7.06, 9.4, 9.96, 10.24, 10.51, 10.75, 10.65, 9.89, 8.95, 6.71, 5.89, 4.11, 2.98, 3.2, 3.58, 3.13, 2.24, 0.0, 0.0, 2.24, 2.68, 4.47, 6.64, 8.45, 9.79, 10.58, 10.89, 11.27, 11.27, 10.85, 10.0, 9.43, 8.38, 8.12, 8.18, 3.12, 3.49, 4.07, 4.29, 4.93, 5.08, 5.4, 5.81, 5.99, 6.16, 6.61, 6.51, 6.8, 5.95, 6.0, 6.16, 6.45, 6.45, 6.65, 7.1, 7.1, 7.55, 8.41, 8.85, 9.29, 9.03, 9.46, 9.45, 9.45, 9.45, 7.2, 6.57, 6.21, 5.49, 5.69, 6.32, 6.53, 5.9, 5.89, 8.56, 9.8, 11.35, 9.6, 9.43, 9.43, 9.4, 9.0, 8.31, 7.59, 7.13, 6.7, 6.98, 6.57, 6.84, 6.45, 5.86, 5.86, 5.86, 5.72, 5.0, 4.34, 5.37, 6.79, 9.65, 11.64, 11.64, 10.92, 10.58, 10.84, 11.38, 11.7, 10.65, 9.06, 7.06, 4.29, 2.68, 3.13, 3.13, 2.68, 0.0, 0.0, 3.13, 4.02, 5.81, 7.15, 8.49, 9.39, 10.14, 10.89, 11.11, 11.79, 11.5, 10.96, 9.43, 8.38, 7.68, 7.76, 8.21, 2.84, 3.49, 3.79, 4.07, 4.55, 5.08, 5.31, 5.4, 5.57, 6.14, 6.6, 6.47, 7.12, 5.58, 6.64, 6.45, 6.94, 7.08, 7.1, 6.65, 6.21, 6.26, 7.15, 7.6, 8.41, 7.94, 7.94, 8.17, 9.04, 7.2, 8.0, 6.57, 5.6, 5.21, 5.77, 6.39, 6.95, 7.56, 7.9, 8.29, 9.83, 9.29, 9.21, 9.2, 9.86, 9.4, 9.26, 8.64, 7.59, 7.59, 7.27, 6.7, 6.57, 6.0, 5.63, 5.63, 5.0, 5.0, 5.0, 4.25, 4.42, 6.21, 9.36, 11.92, 12.79, 12.26, 11.2, 10.58, 10.58, 10.43, 10.18, 9.49, 8.66, 6.95, 4.98, 3.58, 2.68, -0.0, 0.0, -0.0, 2.68, 4.47, 6.26, 7.1, 7.54, 7.6, 8.9, 9.68, 10.41, 10.68, 10.52, 10.27, 10.04, 9.05, 8.12, 7.76, 7.81, 8.4, 2.84, 3.49, 3.49, 4.07, 4.55, 5.08, 5.31, 5.31, 5.57, 5.7, 6.16, 6.16, 6.88, 6.88, 7.06, 6.51, 6.51, 7.1, 7.11, 6.94, 5.73, 4.92, 5.81, 6.26, 6.2, 6.58, 6.71, 7.01, 6.9, 6.9, 7.06, 7.5, 7.01, 6.64, 6.07, 6.44, 5.69, 5.89, 7.9, 9.04, 8.85, 8.06, 7.6, 8.22, 8.15, 8.73, 8.31, 9.34, 9.0, 9.08, 7.27, 6.7, 6.57, 6.0, 6.0, 5.14, 4.13, 4.25, 3.36, 3.27, 5.15, 8.56, 11.61, 12.45, 12.79, 12.26, 11.54, 9.8, 8.76, 8.18, 7.36, 7.13, 6.84, 5.69, 4.8, 3.39, 2.68, 0.0, 0.0, -0.0, 2.21, 4.38, 5.29, 5.75, 6.26, 6.71, 7.56, 8.77, 9.49, 9.75, 9.33, 9.08, 9.42, 8.79, 8.12, 8.18, 7.81, 8.8, 2.84, 3.12, 3.49, 4.07, 4.55, 4.55, 4.9, 5.31, 5.51, 5.09, 5.26, 5.34, 7.6, 6.88, 6.88, 6.88, 7.08, 7.15, 7.1, 7.08, 7.45, 6.71, 5.81, 5.81, 5.29, 5.64, 5.81, 6.07, 5.36, 5.36, 6.14, 7.15, 7.15, 6.64, 5.82, 4.58, 4.56, 6.08, 6.63, 8.4, 9.04, 8.22, 7.6, 7.07, 7.44, 6.79, 8.0, 9.86, 10.66, 9.96, 9.17, 7.48, 6.98, 6.57, 5.76, 4.92, 4.4, 3.49, 3.45, 4.58, 8.06, 10.89, 12.09, 12.56, 12.62, 12.26, 11.47, 9.7, 7.38, 5.93, 5.11, 5.3, 4.68, 4.0, 2.8, 2.8, 2.21, 0.0, 2.24, 2.24, 2.68, 2.21, 3.39, 3.58, 4.02, 4.85, 6.02, 7.12, 7.47, 7.98, 8.4, 8.4, 8.55, 9.03, 8.79, 8.82, 8.43, 8.82, 2.4, 2.86, 3.2, 3.73, 4.37, 4.55, 4.8, 4.9, 4.9, 5.09, 4.8, 4.89, 4.44, 4.88, 6.45, 6.64, 6.71, 7.15, 7.6, 7.6, 7.15, 6.71, 6.71, 6.71, 6.26, 5.64, 5.81, 5.81, 5.51, 5.6, 6.07, 6.71, 6.71, 6.07, 5.72, 4.29, 4.43, 5.2, 7.6, 8.18, 7.82, 7.44, 6.79, 6.11, 5.77, 6.82, 7.42, 8.06, 9.0, 9.62, 9.26, 9.26, 8.93, 8.31, 7.59, 6.83, 5.76, 4.5, 4.58, 7.2, 10.89, 12.74, 14.37, 12.98, 12.47, 12.26, 11.38, 9.66, 7.28, 5.0, 4.4, 4.16, 3.6, 2.24, 0.0, 0.0, 0.0, 2.68, 2.68, 3.13, 3.6, 2.84, 0.0, 1.79, 1.58, 2.98, 4.19, 5.46, 6.4, 6.98, 7.89, 7.71, 8.99, 8.8, 9.05, 9.05, 8.79, 8.79, 2.2, 2.44, 3.15, 3.48, 4.0, 4.55, 4.55, 4.8, 4.8, 4.6, 4.6, 4.77, 4.44, 4.44, 5.73, 6.2, 6.26, 4.47, 4.02, 3.98, 5.29, 5.7, 5.73, 5.7, 6.07, 6.26, 5.81, 6.26, 5.51, 4.84, 5.2, 5.26, 5.26, 4.29, 3.79, 5.06, 6.52, 7.63, 6.82, 7.15, 6.73, 6.73, 6.45, 6.63, 6.52, 6.8, 7.03, 7.44, 7.41, 8.03, 10.04, 11.66, 11.66, 11.64, 11.02, 11.02, 10.04, 7.06, 6.21, 9.68, 13.31, 14.4, 13.72, 13.91, 13.75, 13.89, 13.49, 12.84, 10.51, 7.59, 4.74, 2.4, 1.26, -0.0, -1.58, -2.24, -1.58, -0.0, 3.58, 5.51, 6.44, 6.01, 5.21, 0.87, 0.98, 1.83, 3.47, 4.74, 5.43, 6.21, 6.65, 7.85, 8.56, 8.4, 8.82, 8.79, 8.79, 8.38, 1.73, 2.22, 2.86, 3.78, 4.0, 4.0, 4.55, 4.55, 4.8, 4.4, 4.6, 4.19, 4.3, 4.3, 3.98, 3.98, 3.98, 3.98, 3.58, 3.53, 3.39, 3.32, 3.07, 5.6, 6.07, 5.64, 5.81, 3.07, 4.4, 4.84, 5.21, 4.98, 4.29, 3.93, 3.79, 4.89, 5.43, 6.55, 6.11, 6.01, 6.01, 6.01, 5.69, 5.93, 6.64, 6.79, 8.6, 8.63, 8.4, 9.04, 10.43, 12.45, 13.39, 14.15, 13.72, 13.49, 13.75, 10.41, 7.76, 10.73, 14.28, 14.84, 13.72, 13.72, 14.84, 16.6, 17.91, 17.42, 15.47, 12.65, 6.94, -0.0, -1.9, -2.8, -3.82, -4.34, -4.34, 0.0, 4.66, 7.6, 9.43, 9.26, 9.17, 5.36, 3.91, 3.69, 3.79, 4.74, 5.2, 5.29, 5.36, 6.65, 7.45, 8.17, 8.43, 8.42, 8.42, 8.79, 1.76, 2.48, 2.86, 3.43, 4.0, 4.0, 4.0, 4.37, 4.0, 4.27, 4.27, 4.11, 4.11, 4.11, 3.87, 3.87, 3.87, 3.97, 3.53, 3.32, 2.91, 2.68, 3.07, 2.79, 3.14, 2.79, 2.68, 2.5, 1.9, 1.88, 2.95, 4.11, 4.11, 3.79, 3.48, 3.79, 4.11, 4.74, 4.58, 4.42, 5.24, 5.24, 5.06, 5.21, 6.58, 7.97, 8.41, 8.17, 8.17, 8.6, 8.63, 9.11, 10.18, 11.08, 12.47, 12.75, 13.43, 12.57, 8.82, 10.73, 13.41, 13.01, 12.8, 13.01, 14.99, 16.05, 17.11, 18.58, 17.35, 16.49, 12.26, 3.48, -4.77, -5.26, -5.73, -6.2, -3.58, 4.29, 8.3, 9.56, 9.92, 9.89, 8.79, 8.3, 7.64, 6.7, 5.53, 4.54, 4.22, 4.57, 4.85, 6.21, 7.56, 8.06, 8.21, 7.76, 8.42, 8.42, 1.58, 2.23, 3.16, 3.43, 3.78, 4.0, 4.0, 4.0, 4.0, 4.0, 4.27, 3.88, 3.88, 4.11, 4.11, 4.11, 3.87, 3.82, 3.39, 3.39, 3.32, 3.07, 2.79, 2.53, 2.53, 2.23, 2.23, 1.88, 1.2, 1.24, 1.61, 2.95, 4.43, 3.79, 3.79, 3.79, 3.35, 4.43, 4.43, 4.29, 4.58, 4.29, 5.06, 6.64, 7.06, 7.6, 6.65, 7.21, 7.21, 7.63, 7.63, 7.5, 7.6, 7.6, 7.6, 6.65, 8.0, 9.48, 10.94, 10.7, 11.62, 12.27, 12.71, 13.36, 12.94, 12.86, 13.05, 13.35, 14.17, 13.49, 13.59, 8.18, -2.48, -7.1, -7.15, -2.53, 5.37, 10.01, 11.25, 11.2, 9.48, 7.51, 6.62, 5.18, 7.44, 6.7, 6.45, 5.6, 4.8, 4.84, 5.2, 6.65, 7.56, 7.63, 7.03, 7.81, 8.43, 8.82, 1.58, 2.23, 3.16, 3.43, 3.78, 3.48, 3.73, 4.0, 4.0, 4.0, 4.0, 3.88, 3.88, 3.88, 3.88, 4.11, 3.6, 3.6, 3.2, 3.2, 3.07, 3.07, 2.53, 2.53, 2.23, 1.84, 1.84, 1.16, 1.2, 0.71, 0.99, 1.9, 3.22, 2.8, 4.43, 4.74, 5.72, 4.43, 4.29, 3.47, 3.47, 4.02, 5.36, 6.64, 7.06, 7.01, 6.58, 6.58, 6.58, 6.58, 6.64, 6.58, 5.81, 4.92, 4.24, 4.24, 4.11, 5.49, 8.94, 11.4, 9.83, 9.76, 9.76, 9.83, 10.28, 9.76, 9.76, 9.97, 9.46, 9.8, 10.54, 10.47, 4.17, -1.84, 0.0, 8.42, 12.26, 12.84, 11.38, 9.6, 8.18, 5.86, 4.4, 3.8, 3.79, 6.18, 7.15, 6.82, 6.44, 6.11, 6.55, 6.79, 7.42, 7.21, 7.2, 8.8, 9.42, 9.42, 1.76, 2.86, 2.86, 3.43, 3.48, 3.48, 3.48, 3.48, 3.73, 4.0, 4.0, 3.78, 3.43, 3.88, 3.88, 3.72, 3.35, 3.6, 3.6, 3.07, 3.07, 2.21, 2.21, 1.88, 1.61, 1.16, 0.61, 0.53, 0.0, 0.0, 0.8, 1.9, 2.23, 2.8, 4.74, 4.81, 4.74, 4.74, 4.02, 3.76, 3.35, 4.89, 5.72, 7.06, 6.64, 6.64, 6.23, 5.81, 6.14, 6.07, 5.81, 5.81, 5.6, 4.46, 3.16, 2.73, 3.79, 5.93, 8.8, 9.2, 7.76, 7.63, 7.06, 6.71, 5.81, 5.81, 5.36, 7.06, 8.24, 7.51, 7.38, 7.29, 7.2, 7.38, 11.28, 14.49, 14.15, 11.92, 10.54, 8.99, 7.25, 5.35, 4.34, 3.77, 5.06, 6.18, 7.44, 8.43, 8.42, 8.42, 7.76, 6.54, 6.94, 7.35, 7.89, 8.55, 9.2, 9.2, 2.22, 2.86, 2.86, 3.48, 3.48, 3.48, 3.48, 3.48, 3.48, 3.48, 3.48, 3.78, 3.43, 3.43, 3.43, 3.43, 3.14, 3.35, 3.35, 2.79, 2.21, 1.61, 1.2, 1.16, 0.61, 0.0, -0.53, -0.65, -0.71, 0.0, 1.26, 2.15, 2.53, 4.43, 4.11, 5.15, 4.74, 4.29, 4.43, 4.43, 5.01, 5.6, 6.52, 5.6, 6.64, 6.64, 7.06, 6.64, 5.6, 4.84, 4.46, 4.11, 4.43, 5.01, 5.01, 5.01, 5.36, 5.72, 6.28, 6.32, 6.63, 5.06, 5.01, 3.48, 3.13, 1.79, 3.58, 5.2, 6.98, 7.56, 6.2, 5.18, 7.32, 11.06, 13.88, 14.5, 13.67, 12.02, 11.08, 10.05, 9.24, 7.64, 6.04, 6.01, 6.73, 7.06, 7.58, 8.79, 8.38, 8.38, 7.32, 6.07, 6.4, 7.89, 8.72, 8.55, 8.88, 8.88, 2.44, 2.86, 3.15, 3.48, 3.48, 3.48, 3.48, 3.48, 3.48, 3.48, 3.48, 3.48, 3.43, 3.43, 3.43, 3.16, 3.35, 3.72, 3.43, 2.23, 0.53, 0.71, 1.0, 1.16, 0.0, -0.65, -1.24, -1.24, -0.57, 0.8, 2.15, 2.79, 2.84, 2.86, 2.86, 3.91, 4.43, 4.74, 5.36, 5.36, 5.36, 5.72, 5.72, 6.64, 6.64, 6.52, 6.52, 5.72, 5.36, 4.11, 4.11, 2.98, 4.11, 4.43, 5.36, 5.36, 5.36, 4.02, 4.29, 3.91, 5.03, 5.03, 4.29, 2.98, 2.21, 0.0, 1.79, 4.02, 5.01, 4.2, 3.98, 4.91, 7.2, 9.77, 11.47, 10.54, 10.86, 11.25, 11.37, 11.29, 11.06, 10.51, 8.85, 8.27, 8.64, 8.31, 8.73, 8.42, 8.38, 8.73, 7.68, 6.45, 6.94, 8.4, 9.36, 9.03, 8.67, 8.67, 2.44, 2.86, 2.86, 2.86, 2.86, 2.86, 2.86, 2.86, 3.48, 3.48, 3.48, 3.48, 3.16, 3.43, 3.43, 4.11, 3.43, 3.43, 3.16, 1.8, 0.53, 0.8, 1.86, 2.95, 2.2, 0.0, 0.0, 1.13, 2.48, 2.79, 3.16, 2.86, 2.86, 2.44, 2.44, 2.22, 2.48, 2.86, 3.91, 4.29, 4.43, 5.24, 5.72, 5.72, 6.08, 5.37, 5.37, 5.06, 4.02, 4.43, 4.43, 4.43, 4.11, 5.6, 6.0, 5.36, 5.72, 5.37, 5.03, 4.14, 4.14, 4.14, 3.68, 1.83, 1.6, 2.21, 3.47, 3.9, 2.0, 1.18, 2.62, 4.91, 6.59, 7.2, 6.6, 4.87, 5.02, 6.6, 8.18, 9.6, 10.75, 10.01, 9.06, 8.9, 8.85, 8.93, 8.64, 7.64, 8.12, 7.68, 8.02, 7.76, 8.4, 9.08, 10.0, 9.65, 9.04, 9.04, 2.2, 2.86, 2.86, 2.86, 2.86, 2.86, 2.86, 2.86, 2.86, 2.86, 3.15, 3.15, 2.86, 2.86, 2.86, 3.16, 3.43, 3.43, 3.91, 2.99, 2.0, 2.4, 3.32, 4.29, 4.11, 4.11, 3.79, 3.43, 3.48, 3.49, 3.12, 2.86, 2.2, 2.4, 2.2, 1.73, 1.94, 2.22, 2.44, 2.86, 2.84, 2.84, 2.84, 2.84, 3.49, 3.91, 4.56, 4.29, 4.29, 4.02, 4.43, 5.36, 5.36, 5.36, 4.84, 5.58, 5.37, 4.65, 4.42, 4.0, 2.54, 2.82, 2.49, 2.6, 2.68, 4.22, 4.6, 4.19, 2.76, 2.35, 2.49, 3.28, 3.24, 2.44, 0.84, 0.0, 0.0, 0.86, 6.84, 8.3, 9.11, 9.49, 8.84, 8.3, 8.42, 7.44, 7.22, 6.58, 6.68, 6.01, 7.76, 8.79, 9.42, 10.0, 10.09, 10.01, 9.34, 9.34, 2.2, 2.44, 2.86, 2.86, 2.86, 2.86, 2.86, 2.86, 2.86, 2.86, 2.86, 2.86, 2.86, 2.86, 2.86, 2.86, 2.84, 2.84, 2.84, 3.63, 4.11, 3.72, 3.35, 2.84, 2.84, 2.86, 2.86, 3.12, 2.84, 2.84, 2.4, 2.2, 2.4, 2.4, 1.7, 1.7, 2.4, 2.2, 2.86, 2.84, 2.84, 3.08, 2.82, 2.82, 3.49, 5.03, 3.91, 3.91, 4.29, 3.76, 4.43, 5.36, 5.72, 6.13, 6.13, 5.15, 5.37, 4.95, 3.8, 3.8, 2.54, 2.66, 1.23, 2.6, 4.19, 5.21, 5.21, 5.82, 5.43, 4.95, 4.92, 4.87, 3.22, 0.0, -3.29, -3.36, -0.83, 1.01, 4.5, 6.57, 8.45, 10.05, 9.66, 8.66, 8.01, 7.78, 7.59, 6.88, 6.95, 5.69, 7.81, 9.43, 10.43, 9.52, 9.56, 8.93, 8.22, 8.22, 2.2, 2.44, 2.2, 2.2, 2.2, 2.2, 2.2, 2.44, 2.86, 2.86, 2.86, 2.6, 2.86, 2.86, 2.48, 2.48, 2.23, 2.51, 2.51, 2.23, 2.86, 2.86, 2.86, 2.23, 2.23, 2.48, 2.22, 2.44, 1.73, 1.73, 1.73, 1.73, 1.88, 1.7, 2.36, 2.36, 2.36, 2.18, 2.84, 3.49, 3.49, 3.47, 3.47, 3.47, 3.84, 3.84, 4.14, 2.82, 4.02, 4.02, 5.72, 6.08, 5.93, 6.52, 6.52, 5.93, 6.11, 6.01, 5.31, 4.14, 2.82, 2.82, 2.8, 4.43, 5.49, 6.18, 6.8, 6.8, 7.03, 8.54, 8.49, 9.77, 8.74, 3.49, -3.58, -1.2, 0.0, 1.83, 3.33, 5.38, 7.38, 8.61, 9.66, 9.77, 8.95, 8.93, 8.31, 8.22, 7.9, 6.32, 7.69, 9.27, 9.56, 9.3, 8.27, 7.9, 8.53, 8.53, 2.2, 2.2, 2.2, 2.2, 2.4, 2.4, 2.2, 2.2, 2.44, 2.44, 2.44, 2.22, 2.22, 2.48, 2.48, 2.48, 2.48, 2.23, 2.23, 2.23, 2.23, 2.23, 2.23, 2.23, 1.8, 2.0, 1.76, 1.76, 1.73, 1.73, 1.73, 1.73, 1.88, 1.7, 2.36, 2.36, 2.36, 2.82, 2.82, 3.49, 3.49, 3.47, 3.84, 4.12, 4.12, 4.12, 4.14, 3.68, 4.29, 5.06, 5.93, 6.28, 6.28, 5.93, 6.52, 5.93, 6.11, 6.73, 6.64, 3.72, 3.72, 4.58, 5.37, 6.18, 6.82, 7.42, 7.35, 6.8, 7.12, 7.35, 8.54, 9.66, 6.73, 1.84, 0.0, 2.21, 2.76, 3.33, 3.09, 3.7, 4.4, 5.67, 7.36, 9.11, 10.12, 10.3, 9.96, 9.59, 9.89, 9.56, 7.95, 8.55, 8.94, 8.27, 7.59, 7.52, 7.52, 7.52, 1.73, 1.73, 2.2, 2.2, 2.4, 2.4, 2.4, 2.2, 2.2, 2.2, 2.44, 2.44, 2.22, 2.22, 2.22, 2.22, 2.48, 2.23, 2.23, 2.23, 2.23, 2.23, 2.23, 1.8, 1.8, 1.76, 1.76, 1.76, 1.73, 1.73, 1.73, 1.73, 1.88, 1.7, 2.36, 2.36, 2.32, 2.8, 2.82, 3.49, 3.49, 3.76, 3.47, 3.84, 3.84, 3.84, 5.03, 5.03, 5.69, 6.28, 6.63, 6.28, 5.69, 5.37, 6.52, 5.93, 5.82, 6.79, 7.21, 6.98, 4.74, 5.49, 6.11, 7.15, 7.2, 7.42, 7.76, 8.22, 6.8, 5.82, 4.43, 3.47, 5.56, 5.79, 3.53, 2.46, 3.7, 3.61, 2.49, 1.47, 1.5, 2.95, 5.0, 7.44, 9.96, 9.96, 9.56, 9.89, 10.58, 10.84, 8.64, 7.64, 7.27, 7.27, 7.59, 7.22, 8.22, 8.22, 1.73, 1.73, 1.73, 1.73, 1.88, 1.88, 2.4, 2.4, 2.2, 2.2, 2.2, 2.44, 2.22, 2.22, 1.76, 1.76, 1.76, 1.8, 1.8, 1.8, 1.8, 1.8, 1.8, 1.8, 1.8, 1.76, 1.76, 1.94, 1.73, 1.73, 1.73, 1.88, 1.88, 1.88, 2.18, 2.36, 2.32, 2.8, 3.47, 3.76, 3.49, 3.49, 3.47, 3.47, 3.47, 3.47, 3.47, 3.45, 3.45, 3.72, 4.12, 5.31, 5.37, 5.37, 6.52, 5.93, 6.28, 5.82, 7.44, 7.81, 6.98, 5.49, 6.55, 6.79, 7.2, 7.42, 7.82, 7.82, 7.15, 2.64, 0.8, 0.8, 4.79, 7.34, 6.54, 3.32, 1.54, 0.85, 0.0, 0.0, 0.0, 1.58, 5.13, 7.96, 9.34, 9.26, 9.17, 9.56, 10.22, 10.78, 10.95, 7.52, 6.58, 6.53, 7.31, 7.59, 7.9, 7.9, 1.73, 1.73, 1.73, 1.7, 1.7, 1.7, 1.7, 1.88, 2.4, 1.73, 1.73, 1.73, 1.94, 1.76, 1.76, 1.76, 1.58, 1.8, 1.8, 1.8, 1.8, 1.8, 1.8, 1.8, 1.76, 1.76, 1.76, 1.94, 1.73, 1.73, 1.88, 1.88, 1.7, 1.7, 1.7, 2.36, 2.36, 3.04, 3.47, 3.76, 3.49, 3.49, 3.47, 3.47, 3.47, 3.47, 2.8, 2.8, 2.8, 3.04, 2.82, 3.12, 5.37, 6.9, 6.28, 6.28, 5.93, 6.52, 7.2, 7.81, 7.56, 6.64, 5.37, 6.55, 6.82, 8.17, 7.82, 7.81, 5.89, 4.12, 2.44, 2.42, 3.96, 7.27, 8.96, 7.45, 2.97, 0.0, 0.0, 0.0, 1.98, 4.29, 7.44, 9.27, 9.57, 9.89, 10.22, 10.22, 9.89, 9.8, 10.65, 8.73, 6.88, 6.64, 7.31, 7.9, 7.22, 7.22, 1.73, 1.73, 1.7, 1.7, 1.7, 1.7, 1.7, 1.7, 1.88, 1.88, 1.73, 1.73, 1.73, 1.76, 1.23, 1.11, 1.11, 1.13, 1.13, 1.8, 1.8, 1.8, 1.8, 1.58, 1.76, 1.76, 1.76, 1.76, 1.73, 1.73, 1.73, 1.88, 1.7, 1.7, 1.7, 1.88, 2.4, 2.84, 3.49, 3.49, 3.49, 3.49, 3.49, 3.47, 3.47, 3.04, 2.8, 2.32, 2.36, 2.18, 2.44, 3.48, 4.07, 4.65, 5.49, 5.49, 6.28, 6.52, 6.21, 6.18, 6.95, 5.89, 6.64, 6.55, 8.63, 7.76, 7.82, 6.32, 5.49, 4.2, 3.36, 2.41, 3.32, 5.55, 8.39, 9.67, 6.79, 2.6, 1.13, 2.2, 4.74, 7.07, 8.8, 9.45, 9.21, 9.9, 10.51, 10.84, 9.8, 9.06, 9.48, 10.07, 9.17, 8.02, 7.31, 7.27, 6.51, 6.51, 1.16, 1.16, 1.16, 1.7, 1.7, 1.7, 1.7, 1.7, 1.7, 1.7, 1.73, 1.73, 1.73, 1.19, 1.08, 0.63, 0.51, 0.59, 1.13, 1.13, 1.8, 1.8, 1.58, 1.76, 1.76, 1.76, 1.76, 1.76, 1.73, 1.73, 1.73, 1.73, 1.88, 1.7, 1.7, 1.73, 2.2, 3.12, 3.78, 3.49, 3.49, 3.49, 3.49, 3.49, 2.82, 2.36, 1.67, 1.67, 1.7, 1.73, 3.15, 4.07, 4.41, 4.41, 4.11, 5.06, 5.37, 6.52, 6.21, 6.18, 5.24, 5.36, 6.01, 7.2, 7.42, 8.15, 6.01, 4.26, 3.45, 3.21, 2.49, 2.51, 2.51, 2.51, 4.75, 6.6, 7.93, 6.7, 3.77, 3.47, 5.69, 5.49, 7.23, 9.3, 8.59, 8.57, 9.53, 9.7, 9.4, 9.17, 9.17, 9.36, 9.7, 8.57, 7.27, 6.88, 6.88, 6.88, 1.16, 1.16, 1.16, 1.16, 1.7, 1.7, 1.7, 1.7, 1.7, 1.7, 1.7, 1.19, 1.19, 1.19, 0.54, 0.0, 0.0, 0.51, 1.16, 1.13, 1.13, 1.11, 1.11, 1.23, 1.23, 1.23, 1.23, 1.23, 1.73, 1.73, 1.73, 1.73, 1.73, 1.07, 1.07, 1.19, 2.44, 3.49, 3.49, 3.78, 3.22, 3.49, 3.49, 3.72, 4.58, 2.82, 1.67, 1.07, 2.22, 2.22, 3.48, 4.41, 4.37, 4.11, 4.11, 3.78, 5.37, 6.08, 5.58, 5.49, 5.37, 5.24, 6.11, 7.2, 7.82, 7.15, 5.89, 4.5, 1.84, 1.67, 2.47, 3.29, 3.19, 1.63, 0.85, 2.51, 5.67, 7.59, 6.79, 4.2, 5.1, 5.59, 7.09, 7.17, 7.9, 7.52, 6.71, 7.24, 8.01, 8.42, 8.12, 8.01, 8.01, 8.49, 7.52, 6.88, 6.88, 6.88, 1.16, 1.16, 1.16, 1.16, 1.16, 1.7, 1.7, 1.7, 1.7, 1.7, 1.16, 1.16, 1.19, 0.54, 0.59, 0.0, 0.0, 0.0, 0.61, 0.61, 0.59, 0.66, 0.0, 0.57, 0.63, 0.55, 1.08, 1.08, 1.08, 1.19, 1.19, 1.19, 1.19, 1.07, 0.54, 1.19, 2.22, 3.2, 3.79, 3.78, 3.49, 3.49, 3.12, 2.86, 3.49, 3.77, 2.82, 2.44, 3.79, 4.11, 4.11, 3.83, 4.11, 3.83, 3.49, 3.49, 3.49, 3.49, 4.74, 4.74, 4.58, 5.37, 6.11, 6.55, 6.18, 6.18, 6.73, 6.87, 3.4, 1.96, 2.67, 4.71, 5.67, 3.25, 0.0, 0.0, 1.68, 5.06, 7.13, 6.56, 5.9, 5.06, 6.32, 6.35, 5.46, 5.18, 4.83, 4.6, 5.04, 5.78, 6.05, 5.86, 5.77, 8.3, 7.44, 7.52, 7.9, 7.9, 1.16, 1.16, 1.16, 1.16, 1.16, 1.26, 1.84, 1.67, 1.84, 1.26, 1.16, 1.16, 1.16, 0.59, 0.0, 0.0, 0.0, 0.0, 0.61, 0.53, 0.61, 0.0, 0.0, 0.0, 0.0, 0.0, 0.63, 0.55, 0.55, 0.61, 0.61, 0.61, 0.61, 0.59, 0.59, 1.07, 2.44, 3.2, 3.79, 4.11, 3.49, 3.49, 2.86, 2.86, 2.86, 2.64, 3.55, 3.49, 4.12, 4.12, 3.49, 3.49, 3.49, 3.49, 3.49, 3.49, 3.08, 3.12, 3.15, 4.43, 4.74, 4.58, 5.37, 5.15, 5.15, 4.89, 5.15, 6.32, 6.3, 5.86, 4.16, 5.1, 6.56, 6.54, 2.47, 0.0, 0.89, 3.63, 6.08, 7.25, 7.02, 6.71, 5.09, 4.42, 3.78, 2.16, 1.61, 3.35, 3.2, 3.91, 3.7, 3.78, 5.3, 6.87, 7.36, 8.16, 8.46, 8.46, 1.16, 1.16, 1.16, 1.05, 1.14, 1.14, 1.14, 1.67, 1.14, 1.14, 1.14, 1.14, 1.16, 0.59, 0.0, 0.0, 0.0, 0.0, 0.0, 0.57, 0.0, 0.0, 0.0, 0.0, 0.0, 0.0, 0.0, 0.0, 0.0, 0.0, 0.0, 0.61, 0.54, 0.59, 0.53, 1.16, 1.73, 2.86, 4.07, 3.79, 3.49, 3.49, 3.12, 2.86, 2.44, 2.4, 2.82, 3.47, 3.47, 3.47, 3.49, 2.84, 2.84, 2.84, 2.84, 3.08, 3.08, 2.84, 2.86, 2.86, 4.43, 4.74, 3.72, 3.72, 3.91, 3.63, 3.48, 4.02, 4.96, 5.98, 5.36, 5.1, 4.8, 5.78, 4.1, 0.89, 1.84, 4.26, 5.14, 5.68, 6.44, 5.99, 4.58, 2.83, 2.21, 1.08, 0.63, 0.89, 1.99, 1.55, 1.58, 2.35, 5.18, 7.36, 8.09, 8.09, 8.79, 8.79, 0.59, 0.59, 1.05, 1.14, 1.14, 1.14, 1.14, 1.14, 1.14, 1.14, 1.14, 1.14, 1.05, 0.59, 0.0, 0.0, 0.0, 0.0, 0.0, 0.59, 0.55, 0.57, 0.0, 0.0, 0.0, 0.0, 0.0, 0.0, 0.0, 0.0, 0.0, 0.0, 0.0, 0.0, 0.0, 0.53, 1.73, 2.86, 3.79, 3.79, 3.49, 3.49, 3.12, 3.12, 3.12, 2.4, 2.4, 3.08, 2.82, 3.08, 2.84, 2.84, 2.84, 2.84, 2.84, 2.84, 2.84, 2.84, 2.86, 3.15, 3.15, 3.91, 4.29, 3.63, 3.63, 3.63, 2.76, 2.53, 2.66, 3.7, 5.06, 4.2, 1.68, 1.62, 3.26, 4.13, 3.45, 3.45, 3.11, 3.53, 3.68, 3.68, 3.07, 2.25, 1.1, 0.53, 0.0, 0.0, 0.0, 0.0, 0.89, 2.99, 5.28, 7.36, 8.29, 8.95, 8.73, 8.73, 0.59, 0.59, 1.05, 1.14, 1.14, 1.14, 1.14, 1.14, 1.14, 1.23, 1.14, 1.14, 1.14, 0.58, 0.0, 0.0, 0.0, 0.0, 0.0, 0.57, 0.57, 0.53, 0.61, 0.0, 0.0, 0.0, 0.0, 0.0, 0.0, 0.0, 0.0, 0.0, 0.0, 0.0, 0.0, 0.0, 1.19, 2.22, 3.48, 3.79, 3.49, 3.49, 3.12, 3.12, 3.12, 2.84, 2.4, 2.4, 2.4, 2.84, 2.84, 3.12, 2.84, 2.84, 2.84, 2.84, 2.84, 2.84, 2.84, 2.86, 4.29, 4.02, 4.02, 4.02, 2.76, 3.63, 3.63, 3.47, 2.66, 4.0, 5.21, 4.8, 2.42, 0.78, 2.37, 4.91, 4.3, 2.47, 1.43, 0.73, 0.76, 1.45, 1.5, 2.28, 2.31, 0.54, 0.0, -0.4, 0.0, 0.89, 2.69, 4.2, 5.7, 6.62, 7.54, 8.2, 8.29, 8.29, 0.53, 0.53, 0.58, 1.14, 1.14, 1.14, 1.14, 1.14, 1.23, 1.12, 1.12, 1.14, 1.14, 0.58, 0.57, 0.0, 0.0, 0.0, 0.0, 0.56, 1.1, 1.1, 1.2, 0.58, 0.59, 0.0, 0.0, 0.0, 0.0, 0.0, 0.0, 0.0, 0.0, -0.54, -0.59, 0.0, 0.55, 2.48, 3.48, 3.48, 3.49, 3.2, 3.2, 2.86, 2.86, 2.2, 2.2, 2.2, 2.2, 2.2, 2.44, 2.44, 2.44, 2.2, 3.12, 2.84, 2.84, 3.12, 2.86, 3.48, 3.43, 5.72, 4.02, 4.02, 3.0, 3.76, 3.91, 3.72, 3.55, 4.26, 4.6, 4.8, 3.47, 2.39, 2.55, 4.71, 5.11, 3.29, 0.89, 0.0, 0.0, 0.8, 1.49, 3.09, 4.03, 1.84, 0.53, 0.89, 2.54, 3.32, 4.92, 5.63, 5.86, 5.77, 5.99, 5.99, 7.54, 7.54, 0.53, 0.53, 0.58, 1.14, 1.14, 1.14, 1.14, 1.14, 1.12, 1.12, 1.12, 1.23, 1.14, 0.57, 0.0, 0.0, 0.0, 0.0, 0.56, 0.56, 1.1, 1.1, 1.18, 1.18, 1.1, 0.53, 0.0, 0.0, 0.0, -0.59, -0.59, -0.57, -0.63, -0.55, -0.61, -0.61, 0.0, 1.8, 2.86, 3.48, 3.48, 3.48, 3.2, 2.44, 2.44, 2.44, 2.2, 1.73, 1.94, 2.44, 2.44, 2.44, 2.44, 2.44, 2.86, 2.86, 3.12, 3.12, 2.86, 2.86, 2.86, 2.86, 3.2, 2.8, 2.8, 3.0, 2.6, 3.0, 3.55, 3.55, 3.52, 4.2, 4.65, 4.87, 4.0, 4.06, 4.93, 5.06, 3.25, 2.31, 2.35, 2.35, 3.2, 4.83, 5.49, 5.38, 4.83, 4.92, 5.14, 5.63, 5.51, 5.72, 5.06, 4.87, 4.5, 5.09, 6.09, 6.09, 0.58, 0.58, 0.58, 1.14, 1.14, 1.14, 1.14, 1.12, 1.12, 1.12, 1.12, 1.12, 0.57, 0.56, 0.0, 0.0, 0.0, 0.0, 0.56, 1.1, 1.1, 1.1, 1.18, 1.18, 1.18, 0.59, 0.56, 0.0, 0.0, 0.0, 0.0, -0.57, 0.0, 0.0, -0.61, -0.61, 0.0, 1.58, 2.86, 3.48, 3.48, 3.15, 3.15, 2.8, 1.76, 1.76, 1.57, 1.76, 1.76, 2.22, 2.22, 2.44, 2.44, 2.86, 2.86, 2.86, 2.86, 2.86, 2.86, 2.86, 2.86, 2.86, 3.0, 2.8, 2.8, 2.66, 2.6, 2.8, 3.33, 3.33, 3.4, 4.96, 5.64, 7.0, 5.62, 3.42, 3.39, 4.17, 4.13, 4.12, 4.16, 4.65, 5.3, 6.24, 6.79, 6.62, 6.09, 6.09, 5.72, 5.4, 5.4, 4.75, 3.91, 4.3, 4.25, 3.88, 3.88, 5.18, 0.58, 0.58, 0.58, 0.58, 1.14, 1.14, 1.12, 1.12, 1.12, 1.12, 1.12, 0.57, 0.56, 0.0, 0.0, 0.0, 0.0, 0.56, 0.56, 1.1, 1.1, 0.59, 0.59, 0.59, 0.59, 0.59, 0.59, 0.56, 0.57, 0.0, 0.0, 0.0, 0.0, 0.0, 0.0, 0.0, 0.0, 1.76, 2.86, 3.48, 3.48, 2.86, 2.86, 3.91, 2.44, 1.73, 1.23, 1.76, 1.76, 2.22, 2.44, 2.44, 2.44, 2.44, 2.86, 2.86, 2.44, 2.86, 2.44, 2.48, 2.86, 2.86, 3.0, 1.84, 1.98, 3.0, 3.0, 3.47, 4.29, 4.16, 4.16, 4.96, 5.92, 6.6, 7.34, 4.98, 1.68, 0.89, 3.06, 3.91, 5.3, 6.32, 6.58, 6.79, 6.62, 6.77, 5.89, 5.4, 4.75, 4.75, 3.91, 3.19, 3.29, 3.51, 3.49, 3.15, 3.15, 3.88, 0.58, 0.58, 0.58, 0.58, 1.12, 1.12, 1.12, 1.12, 1.12, 1.12, 0.61, 0.56, 0.0, 0.0, 0.0, 0.0, 0.0, 0.56, 0.56, 0.59, 0.59, 0.59, 0.59, 0.59, 0.59, 0.59, 0.59, 0.56, 0.56, 0.56, 0.57, 0.57, 0.58, 0.58, 0.58, 0.0, 0.0, 1.57, 2.86, 3.48, 3.48, 2.86, 3.16, 2.86, 2.8, 1.73, 1.76, 1.76, 2.22, 2.44, 2.44, 2.44, 2.44, 2.44, 2.44, 2.44, 2.44, 2.44, 2.44, 2.22, 2.48, 2.48, 1.8, 3.0, 3.0, 3.0, 2.99, 3.91, 4.29, 4.58, 4.16, 4.42, 4.88, 5.8, 9.37, 8.03, 3.39, 0.0, 0.95, 4.56, 6.24, 6.88, 6.79, 6.62, 6.53, 6.1, 5.6, 4.65, 4.06, 3.19, 3.19, 3.29, 3.25, 2.57, 2.54, 2.54, 2.4, 3.15, 0.58, 0.58, 0.58, 0.57, 0.57, 1.12, 1.12, 1.12, 1.12, 0.56, 0.56, 0.0, 0.0, 0.0, 0.0, 0.0, 0.0, 0.59, 0.59, 0.59, 0.59, 0.55, 0.0, 0.0, 0.59, 0.56, 0.56, 0.56, 0.56, 0.56, 0.61, 0.57, 0.57, 0.53, 0.57, 0.0, 0.58, 1.73, 2.86, 3.48, 3.15, 2.86, 2.23, 2.23, 1.76, 2.8, 2.44, 2.44, 2.44, 2.44, 2.44, 2.44, 2.44, 2.44, 2.44, 2.44, 2.44, 2.44, 2.44, 2.22, 2.23, 2.51, 2.8, 3.0, 3.0, 4.02, 2.99, 4.43, 3.91, 4.58, 4.42, 4.42, 4.0, 4.8, 7.13, 10.43, 9.23, 4.13, 2.82, 5.1, 6.51, 6.71, 6.36, 6.09, 5.68, 5.02, 4.55, 3.96, 4.06, 3.19, 2.51, 2.49, 2.57, 2.83, 1.73, 1.73, 1.73, 1.73, 0.58, 0.58, 0.58, 0.57, 0.57, 0.57, 0.57, 0.57, 0.0, 0.0, 0.0, 0.0, 0.0, 0.0, 0.0, 0.0, 0.59, 0.59, 0.59, 0.59, 0.0, 0.0, 0.0, 0.0, 0.59, 0.59, 0.56, 0.56, 0.56, 0.56, 0.56, 0.57, 0.57, 0.57, 0.57, 0.0, 0.58, 1.73, 2.86, 3.15, 3.15, 2.86, 2.48, 2.23, 1.8, 1.76, 2.2, 2.2, 2.2, 2.44, 2.44, 2.44, 2.44, 2.44, 2.44, 2.44, 2.44, 2.44, 2.44, 2.22, 2.23, 2.51, 2.23, 3.0, 3.0, 4.29, 4.02, 4.43, 3.63, 4.29, 4.16, 3.55, 3.8, 4.2, 5.64, 8.16, 11.54, 9.89, 6.79, 5.06, 5.28, 5.86, 6.09, 5.2, 4.92, 4.21, 3.96, 3.82, 3.32, 3.19, 2.49, 2.44, 2.51, 1.84, 0.95, 0.95, 0.95, 0.95, 0.53, 0.53, 0.57, 0.57, 0.57, 0.57, 0.57, 0.0, 0.0, 0.0, 0.0, 0.0, 0.0, 0.0, 0.0, 0.55, 0.55, 0.59, 0.59, 0.0, 0.0, 0.0, 0.0, 0.0, 0.59, 0.59, 0.59, 0.59, 0.56, 0.56, 0.56, 0.61, 0.57, 0.57, 0.57, 0.57, 0.58, 1.73, 2.6, 3.15, 3.15, 2.86, 2.48, 2.48, 1.8, 1.76, 1.94, 1.73, 2.44, 2.44, 2.44, 2.44, 2.44, 2.44, 2.44, 2.44, 2.44, 2.44, 1.76, 2.22, 2.23, 2.51, 2.51, 2.8, 3.0, 4.02, 4.29, 4.02, 3.91, 3.72, 3.55, 3.2, 3.4, 4.0, 4.92, 6.33, 8.03, 10.82, 9.55, 6.79, 5.14, 4.6, 5.09, 5.0, 4.32, 3.68, 4.06, 3.32, 3.19, 3.36, 3.6, 2.8, 1.84, 0.89, 0.0, 0.0, 0.0, 0.0, 0.57, 0.57, 0.57, 0.57, 0.0, 0.0, 0.0, 0.0, 0.0, 0.0, 0.0, 0.0, 0.0, 0.0, 0.55, 0.55, 0.55, 0.55, 0.55, 0.0, 0.0, 0.0, 0.0, 0.0, 0.59, 0.59, 0.59, 0.59, 0.59, 0.56, 0.56, 0.56, 0.61, 1.2, 0.56, 0.57, 0.58, 1.73, 2.86, 3.15, 3.15, 2.86, 2.48, 2.48, 2.48, 1.76, 1.76, 1.76, 2.22, 2.22, 2.22, 2.22, 2.44, 2.44, 2.44, 2.44, 2.44, 1.94, 2.22, 2.22, 2.48, 2.51, 2.51, 1.8, 3.0, 3.0, 4.29, 3.47, 3.47, 3.47, 2.82, 3.33, 4.03, 4.96, 4.92, 5.0, 5.67, 7.27, 9.18, 9.12, 7.63, 5.09, 4.6, 4.5, 4.4, 4.4, 3.76, 4.01, 4.2, 3.55, 4.43, 0.96, 0.0, 0.0, 0.0, 0.0, 0.0, 0.0, 0.56, 0.56, 0.56, 0.56, 0.56, 0.55, 0.55, 0.0, 0.0, 0.0, 0.0, 0.0, 0.55, 0.55, 0.55, 0.55, 0.55, 0.0, 0.0, 0.0, 0.0, 0.0, 0.55, 0.55, 0.55, 0.59, 0.55, 0.59, 0.59, 0.56, 0.56, 0.56, 1.1, 1.1, 0.56, 0.56, 0.58, 1.73, 2.86, 3.15, 2.86, 2.86, 2.48, 2.48, 2.48, 1.76, 1.76, 1.76, 2.22, 2.22, 2.48, 2.48, 2.22, 2.22, 2.22, 2.44, 2.44, 2.22, 2.22, 2.22, 2.48, 2.23, 2.51, 1.8, 1.8, 3.0, 3.0, 2.6, 2.8, 2.8, 2.47, 3.55, 4.42, 4.34, 4.07, 4.13, 4.06, 5.73, 8.16, 8.99, 9.12, 6.65, 4.44, 4.5, 4.31, 4.4, 3.85, 3.8, 4.74, 4.84, 2.2, 0.0, 0.0, 0.0, 0.0, 0.0, 0.0, 0.0, 0.56, 0.56, 0.59, 0.55, 0.55, 0.55, 0.55, 0.55, 0.55, 0.55, 0.55, 0.55, 0.55, 0.55, 0.55, 0.55, 0.0, 0.0, 0.0, 0.0, 0.0, 0.0, 0.55, 0.55, 0.55, 0.55, 0.55, 0.55, 0.59, 0.56, 0.56, 0.56, 1.1, 1.1, 0.59, 0.56, 0.58, 1.73, 2.86, 3.2, 2.86, 2.86, 2.48, 2.48, 2.48, 2.22, 2.22, 2.22, 2.22, 2.48, 2.48, 2.48, 2.22, 2.22, 2.22, 2.22, 2.22, 2.22, 2.22, 2.48, 2.48, 2.23, 2.23, 1.6, 1.27, 1.63, 1.52, 1.52, 2.8, 2.8, 3.47, 3.55, 3.4, 3.45, 3.49, 4.25, 4.01, 5.48, 7.36, 8.99, 8.99, 8.16, 5.86, 3.8, 3.88, 3.78, 4.0, 4.01, 4.4, 1.8, 0.0, 0.0, 0.0, 0.96, 0.89, 1.84, 1.84, 1.84, 0.56, 0.56, 0.59, 0.55, 0.55, 0.55, 0.55, 0.55, 0.55, 0.55, 0.55, 0.55, 0.55, 0.55, 0.55, 0.0, 0.0, 0.0, 0.0, 0.0, 0.0, 0.0, 0.55, 0.55, 0.55, 0.55, 0.55, 0.55, 0.59, 0.59, 0.56, 0.56, 1.1, 1.18, 0.55, 0.56, 0.58, 1.73, 2.86, 3.2, 2.86, 2.86, 2.86, 2.48, 2.48, 2.22, 2.44, 2.22, 2.48, 2.48, 2.48, 2.22, 2.22, 2.22, 1.76, 1.76, 1.76, 2.22, 2.22, 2.48, 2.48, 2.23, 1.8, 1.8, 1.27, 1.63, 1.52, 2.8, 2.8, 2.8, 2.64, 3.55, 3.4, 3.45, 4.0, 4.71, 4.8, 6.33, 8.05, 8.72, 9.12, 9.67, 8.18, 5.28, 3.09, 3.09, 4.16, 4.19, 2.53, 0.98, 0.0, 1.05, 0.96, 1.98, 2.82, 3.4, 3.4, 3.4, 0.56, 0.56, 0.59, 0.55, 0.55, 0.55, 0.55, 0.55, 0.55, 0.55, 0.55, 0.55, 0.0, 0.0, 0.0, 0.0, 0.0, 0.0, 0.0, 0.0, 0.0, 0.0, 0.0, 0.55, 0.55, 0.55, 0.55, 0.55, 0.55, 0.59, 0.56, 1.1, 1.1, 1.18, 0.55, 0.59, 1.14, 2.2, 2.86, 3.2, 2.86, 3.15, 2.86, 2.48, 2.48, 2.22, 2.44, 2.22, 2.48, 2.48, 2.48, 2.22, 2.22, 1.76, 1.76, 1.76, 1.76, 1.76, 1.76, 2.0, 2.48, 2.23, 1.8, 1.13, 1.27, 1.84, 2.6, 2.8, 2.8, 2.8, 2.64, 2.64, 3.4, 4.12, 4.83, 5.9, 5.76, 6.97, 7.9, 8.84, 8.86, 9.8, 10.71, 7.9, 4.83, 4.01, 3.35, 3.48, 2.76, 1.7, 0.81, 1.84, 3.0, 3.55, 3.6, 4.12, 4.12, 4.12, 0.56, 0.0, 0.0, 0.0, 0.0, 0.0, 0.0, 0.0, 0.0, 0.0, 0.0, 0.0, 0.0, 0.0, 0.0, 0.0, 0.0, 0.0, 0.0, 0.0, 0.0, 0.0, 0.55, 0.55, 0.55, 0.58, 0.58, 0.0, 0.55, 0.59, 0.59, 1.18, 1.18, 1.18, 0.55, 0.56, 1.14, 2.2, 3.2, 3.2, 2.86, 2.86, 2.86, 2.48, 2.22, 2.22, 2.22, 2.22, 2.48, 2.48, 2.48, 2.22, 1.76, 1.76, 1.76, 1.76, 1.76, 1.76, 1.8, 1.8, 1.8, 1.8, 1.8, 1.13, 1.13, 1.99, 2.99, 2.8, 3.0, 3.0, 3.72, 2.82, 2.82, 4.26, 4.96, 5.64, 6.7, 7.08, 7.24, 8.05, 8.18, 8.86, 9.92, 9.25, 6.57, 4.29, 3.47, 3.22, 3.47, 3.0, 3.33, 2.47, 3.0, 4.5, 4.34, 4.2, 4.2, 4.2, 0.0, 0.0, 0.0, 0.0, 0.0, 0.0, 0.0, 0.0, 0.0, 0.0, 0.0, 0.0, 0.0, 0.0, 0.0, 0.0, 0.0, 0.0, 0.0, 0.0, 0.0, 0.0, 0.0, 0.55, 0.55, 0.58, 0.0, 0.0, 0.55, 0.59, 0.59, 1.18, 1.18, 0.55, 0.55, 0.56, 1.16, 2.44, 3.2, 3.2, 3.15, 2.86, 2.86, 2.48, 2.22, 2.22, 2.22, 2.22, 2.48, 2.48, 2.22, 1.76, 1.76, 1.76, 1.76, 1.76, 1.76, 1.58, 1.58, 1.8, 1.8, 1.8, 1.8, 1.13, 1.16, 1.13, 1.99, 2.99, 3.72, 4.29, 4.58, 4.42, 4.58, 4.58, 5.53, 6.18, 6.83, 6.7, 6.45, 6.56, 8.05, 8.72, 8.86, 7.93, 5.59, 3.9, 3.11, 2.6, 2.6, 3.79, 3.91, 3.69, 4.5, 4.34, 4.83, 5.06, 5.06, 5.06, 0.0, 0.0, 0.0, 0.0, 0.0, 0.0, 0.0, 0.0, 0.0, 0.0, 0.0, 0.0, 0.0, 0.0, 0.0, 0.0, 0.0, 0.0, 0.0, 0.0, 0.0, 0.0, 0.0, 0.0, 0.0, 0.0, 0.0, 0.0, 0.55, 0.55, 0.55, 0.59, 0.55, 0.55, 0.55, 0.0, 1.16, 2.44, 3.48, 3.2, 3.15, 2.86, 2.48, 2.23, 1.76, 1.76, 2.22, 2.22, 2.48, 2.48, 1.76, 1.76, 1.76, 1.8, 1.8, 1.58, 1.58, 1.58, 1.8, 1.8, 1.8, 1.8, 1.13, 1.13, 0.61, 0.61, 2.2, 2.76, 3.91, 4.29, 4.58, 4.95, 5.37, 5.37, 5.37, 6.01, 6.53, 5.76, 5.63, 6.45, 7.12, 8.84, 8.74, 5.8, 4.46, 3.47, 3.22, 2.4, 2.4, 3.2, 4.37, 4.6, 5.21, 5.21, 5.29, 5.29, 5.29, 5.29, 0.0, 0.0, 0.0, 0.0, 0.0, 0.0, 0.0, 0.0, 0.0, 0.0, 0.0, 0.0, 0.0, 0.0, 0.0, 0.0, 0.0, 0.0, 0.0, 0.0, 0.0, 0.0, 0.0, 0.0, 0.0, 0.0, 0.0, 0.0, 0.55, 0.55, 0.55, 0.55, 0.55, 0.55, 0.0, 0.0, 1.19, 2.22, 3.48, 3.48, 2.86, 2.86, 2.23, 2.23, 1.76, 1.76, 1.76, 2.48, 2.0, 2.0, 1.76, 1.76, 1.11, 1.27, 1.27, 1.27, 1.27, 1.27, 1.27, 1.8, 1.8, 1.6, 1.13, 1.13, 0.61, 0.65, 1.2, 1.61, 2.99, 2.8, 3.72, 4.58, 5.37, 5.37, 5.37, 6.01, 6.18, 6.42, 6.57, 7.36, 7.73, 8.56, 8.83, 6.73, 3.79, 3.07, 3.35, 3.63, 4.01, 4.03, 4.6, 5.38, 5.46, 5.46, 5.29, 5.14, 5.14, 5.14, 0.0, 0.0, 0.0, 0.0, 0.0, 0.0, 0.0, 0.0, 0.0, 0.0, 0.0, 0.0, 0.0, 0.0, 0.0, 0.0, 0.0, 0.0, 0.0, 0.0, 0.0, 0.0, 0.0, 0.0, 0.0, 0.0, 0.0, 0.0, 0.0, 0.0, 0.0, 0.0, 0.0, 0.0, 0.0, 0.0, 1.19, 2.48, 3.15, 3.15, 2.86, 2.58, 2.23, 1.8, 1.76, 1.76, 1.76, 1.8, 1.8, 1.58, 1.11, 1.23, 0.66, 0.59, 1.13, 1.13, 1.27, 1.27, 1.27, 1.27, 1.6, 1.13, 1.13, 0.59, 0.61, 0.54, 0.54, 0.61, 1.99, 2.6, 2.8, 3.72, 3.72, 4.58, 4.58, 4.58, 6.01, 6.53, 7.48, 7.82, 8.12, 8.95, 10.72, 9.09, 5.21, 3.79, 4.74, 5.37, 4.95, 5.21, 5.38, 5.28, 5.06, 5.06, 5.29, 4.92, 4.92, 4.92, 0.0, 0.0, 0.0, 0.0, 0.0, 0.0, 0.0, 0.0, 0.0, 0.0, 0.0, 0.0, 0.0, 0.0, 0.0, 0.0, 0.0, 0.0, 0.0, 0.0, 0.0, 0.0, 0.0, 0.0, 0.0, 0.0, 0.0, 0.0, 0.0, 0.0, 0.0, 0.0, 0.0, 0.0, 0.0, 0.0, 1.08, 2.48, 2.86, 2.86, 2.86, 2.51, 2.23, 1.8, 1.58, 1.58, 1.58, 1.8, 1.58, 1.11, 0.63, 0.63, 0.0, 0.61, 0.61, 1.33, 1.13, 1.13, 1.27, 1.13, 1.13, 1.33, 1.13, 0.7, 0.61, 0.65, 0.54, 0.53, 1.13, 1.84, 1.98, 2.8, 3.47, 4.29, 4.58, 4.58, 4.58, 5.89, 6.83, 7.9, 8.12, 7.93, 9.55, 10.59, 7.36, 5.37, 5.43, 6.01, 5.94, 5.49, 5.38, 5.28, 5.28, 5.06, 4.4, 4.25, 4.25, 4.25, 0.0, 0.0, 0.0, 0.0, 0.0, 0.0, 0.0, 0.0, 0.0, 0.0, 0.0, 0.0, 0.0, 0.0, 0.0, 0.0, 0.0, 0.0, 0.0, 0.0, 0.0, 0.0, 0.0, 0.0, 0.0, 0.0, 0.0, 0.0, 0.0, 0.0, 0.0, 0.0, 0.0, 0.0, 0.0, 0.0, 1.23, 2.23, 2.86, 2.86, 2.84, 2.51, 1.8, 1.8, 1.58, 1.11, 1.11, 1.11, 1.11, 0.63, 0.0, 0.0, 0.0, 0.65, 0.53, 0.61, 0.59, 0.59, 1.13, 1.13, 1.33, 1.33, 1.16, 0.61, 0.61, 0.65, 0.65, 0.53, 0.59, 0.96, 1.84, 3.91, 3.91, 4.29, 4.58, 4.58, 4.58, 4.95, 5.89, 6.83, 6.45, 6.43, 7.11, 9.05, 9.09, 6.98, 6.06, 7.02, 6.58, 5.86, 5.86, 5.78, 5.18, 4.92, 4.4, 3.36, 3.36, 3.36, 0.0, 0.0, 0.0, 0.0, 0.0, 0.0, 0.0, 0.0, 0.0, 0.0, 0.0, 0.0, 0.0, 0.0, 0.0, 0.0, 0.0, 0.0, 0.0, 0.0, 0.0, 0.0, 0.0, 0.0, 0.0, 0.0, 0.0, 0.0, 0.0, 0.0, 0.0, 0.0, 0.0, 0.0, 0.0, 0.0, 1.23, 2.23, 2.48, 2.86, 2.51, 2.51, 1.8, 1.27, 1.11, 1.11, 1.11, 0.57, 0.57, 0.0, 0.0, 0.0, 0.61, 0.65, 0.65, 0.61, 0.61, 0.59, 0.59, 0.59, 1.16, 1.16, 1.16, 0.61, 0.61, 0.53, 0.53, 0.53, 0.61, 1.99, 2.99, 3.91, 3.91, 4.43, 4.29, 5.06, 5.37, 4.42, 5.1, 4.92, 4.8, 5.06, 6.52, 7.08, 8.96, 8.18, 7.35, 6.64, 6.88, 6.88, 6.14, 6.05, 5.41, 5.14, 4.07, 3.36, 3.36, 3.36, 0.0, 0.0, 0.0, 0.0, 0.0, 0.0, 0.0, 0.0, 0.0, 0.0, 0.0, 0.0, 0.0, 0.0, 0.0, 0.0, 0.0, 0.0, 0.0, 0.0, 0.0, 0.0, 0.0, 0.0, 0.0, 0.0, 0.0, 0.0, 0.0, 0.0, 0.0, 0.0, 0.0, 0.0, 0.0, 0.0, 1.11, 1.8, 2.23, 2.23, 2.23, 1.8, 1.8, 1.27, 0.57, 0.57, 0.57, 0.57, 0.0, 0.0, 0.0, 0.57, 0.61, 0.65, 0.65, 0.0, 0.0, 0.0, 0.0, 0.61, 0.61, 0.61, 0.61, 0.61, 0.61, 0.53, 0.53, 0.53, 0.53, 1.16, 1.6, 2.99, 3.63, 3.91, 4.74, 4.58, 4.42, 4.68, 3.27, 3.21, 3.95, 4.68, 6.1, 7.2, 8.12, 8.31, 7.59, 6.95, 7.27, 7.22, 6.79, 5.95, 5.41, 5.14, 4.25, 3.36, 3.36, 3.36, 0.0, 0.0, 0.0, 0.0, 0.0, 0.0, 0.0, 0.0, 0.0, 0.0, 0.0, 0.0, 0.0, 0.0, 0.0, 0.0, 0.0, 0.0, 0.0, 0.0, 0.0, 0.0, 0.0, 0.0, 0.0, 0.0, 0.0, 0.0, 0.0, 0.0, 0.0, 0.0, 0.0, 0.0, 0.0, 0.0, 0.57, 1.6, 1.6, 1.8, 1.8, 1.8, 1.27, 0.66, 0.57, 0.0, 0.0, 0.0, 0.0, 0.0, 0.0, 0.57, 0.59, 0.61, 0.53, 0.0, 0.0, 0.0, 0.0, 0.53, 0.65, 0.65, 0.65, 0.0, 0.0, 0.0, 0.0, 0.0, 0.0, 0.65, 0.61, 1.83, 2.76, 4.02, 3.91, 3.72, 3.55, 3.4, 3.4, 4.12, 4.71, 5.63, 6.43, 7.11, 8.86, 8.99, 8.22, 8.02, 7.59, 7.52, 7.52, 6.44, 5.95, 5.41, 4.6, 3.61, 3.61, 3.61, 0.0, 0.0, 0.0, 0.0, 0.0, 0.0, 0.0, 0.0, 0.0, 0.0, 0.0, 0.0, 0.0, 0.0, 0.0, 0.0, 0.0, 0.0, 0.0, 0.0, 0.0, 0.0, 0.0, 0.0, 0.0, 0.0, 0.0, 0.0, 0.0, 0.0, 0.0, 0.0, 0.0, 0.0, 0.0, 0.0, 0.57, 1.13, 1.33, 1.13, 1.13, 1.13, 0.66, 0.57, 0.0, 0.0, 0.0, 0.0, 0.0, 0.0, 0.57, 0.57, 0.59, 0.61, 0.0, 0.0, 0.0, 0.0, 0.0, 0.0, 0.0, 0.0, 0.0, 0.0, 0.0, 0.0, 0.0, 0.0, 0.0, 0.0, 0.0, 0.61, 1.13, 3.0, 2.8, 2.64, 3.55, 4.03, 4.26, 4.71, 5.21, 5.76, 6.56, 7.36, 8.99, 10.05, 9.89, 9.0, 8.64, 8.22, 8.22, 7.36, 6.71, 5.95, 4.96, 4.34, 4.34, 4.34, 0.0, 0.0, 0.0, 0.0, 0.0, 0.0, 0.0, 0.0, 0.0, 0.0, 0.0, 0.0, 0.0, 0.0, 0.0, 0.0, 0.0, 0.0, 0.0, 0.0, 0.0, 0.0, 0.0, 0.0, 0.0, 0.0, 0.0, 0.0, 0.0, 0.0, 0.0, 0.0, 0.0, 0.0, 0.0, 0.0, 0.57, 1.13, 1.33, 1.13, 1.13, 1.13, 0.66, 0.57, 0.0, 0.0, 0.0, 0.0, 0.0, 0.0, 0.57, 0.57, 0.59, 0.61, 0.0, 0.0, 0.0, 0.0, 0.0, 0.0, 0.0, 0.0, 0.0, 0.0, 0.0, 0.0, 0.0, 0.0, 0.0, 0.0, 0.0, 0.61, 1.13, 3.0, 2.8, 2.64, 3.4, 4.03, 4.26, 4.71, 5.21, 5.52, 6.45, 7.38, 8.99, 10.25, 10.43, 9.96, 8.93, 8.93, 8.53, 8.12, 7.36, 6.57, 6.04, 5.24, 5.24, 5.24]}]